GFSFLT2_sfc_thetae_000.txt.gz
Theta_e
308 309 305 301 296 301 295 296 293 296 301 311 315 318 319 319 322 325 329 331 332 335 338 342 345 347 348 343 340 336 332 330
308 307 306 305 304 296 293 289 287 294 297 300 310 314 317 317 317 321 327 331 332 334 337 342 344 347 349 344 341 337 336 332
302 300 300 302 299 297 297 294 290 289 294 306 313 316 317 319 321 319 324 328 332 334 336 342 344 346 348 345 342 338 337 335
299 305 306 305 301 298 294 292 293 293 296 311 313 315 320 320 322 321 322 327 330 333 334 339 341 345 346 346 343 341 340 337
295 298 301 302 302 301 297 295 293 293 297 310 311 311 313 313 315 318 322 323 329 330 331 336 339 343 345 346 344 343 341 337
295 296 300 299 302 303 299 294 294 296 299 305 310 311 313 314 317 319 322 323 327 329 330 335 339 342 344 345 345 342 340 338
299 304 305 305 304 303 299 299 298 299 301 305 310 313 314 316 318 319 319 324 325 329 331 335 337 340 343 344 343 341 339 336
300 303 305 302 306 306 306 304 303 302 303 310 313 316 314 317 317 317 320 328 326 329 333 336 338 339 340 341 341 340 337 336
294 301 303 300 303 304 305 308 305 299 304 309 310 313 312 313 314 314 317 320 329 332 333 338 340 340 337 338 339 336 335 334
295 295 291 301 309 312 309 310 310 307 309 311 313 314 313 313 313 315 316 316 319 328 333 339 343 341 337 334 335 335 333 333
293 291 296 304 308 309 307 307 313 310 313 313 314 315 312 314 315 316 315 317 320 323 330 335 341 340 334 333 334 333 332 332
299 293 291 299 312 315 311 301 313 314 313 311 313 307 310 316 317 319 322 323 324 326 337 335 337 335 333 332 331 331 332 333
297 295 298 308 314 314 299 301 313 313 312 311 312 313 315 316 318 320 324 327 328 337 338 335 334 334 331 330 330 332 333 332
299 296 293 314 313 308 309 312 314 315 316 316 315 317 318 318 316 316 316 323 327 335 336 335 334 334 331 329 330 331 329 328
305 303 311 314 312 313 314 312 314 314 316 316 317 318 321 319 319 317 319 321 326 331 334 333 333 330 324 324 328 328 326 326
307 311 314 316 315 316 316 315 316 318 319 318 316 320 320 320 325 328 328 325 332 329 326 324 327 327 327 330 328 325 324 324
309 313 313 314 314 314 317 318 317 317 318 318 321 328 330 328 327 326 324 324 326 327 325 323 326 326 328 327 325 324 324 325
305 311 310 311 314 315 311 312 313 312 312 315 319 327 332 328 326 323 322 323 324 326 326 323 323 322 323 325 323 320 318 323
311 314 313 314 313 311 310 310 311 309 309 308 310 313 318 327 325 322 322 323 324 325 324 324 324 323 325 325 324 322 325 324

GFSFLT2_sfc_thetae_003.txt.gz
Theta_e
305 305 304 299 294 298 291 291 290 293 297 305 313 314 320 319 320 325 329 330 336 338 338 340 343 345 348 348 348 341 334 330
305 305 304 303 302 293 291 287 287 292 294 297 306 310 315 317 317 323 328 330 333 338 336 341 344 346 347 349 347 341 333 330
300 298 299 299 295 294 294 292 289 288 292 302 307 312 313 316 319 322 326 328 331 334 336 339 344 345 346 346 345 341 335 331
295 301 303 301 299 298 295 290 289 291 294 306 309 314 316 317 318 319 323 327 331 333 334 335 338 342 344 345 343 341 337 333
291 294 298 298 299 296 294 293 292 292 295 307 310 313 317 317 318 318 320 324 329 331 332 333 337 340 342 345 344 342 337 334
293 294 298 297 300 299 297 293 292 294 297 303 308 311 312 315 318 319 320 322 326 329 331 333 334 339 341 344 345 343 339 336
300 300 300 300 300 300 298 298 297 298 299 305 309 311 313 315 315 316 318 319 322 325 328 330 332 337 340 344 345 343 341 338
295 299 300 299 302 303 303 299 299 299 299 306 312 312 312 314 315 315 317 320 321 324 327 327 330 335 339 342 344 344 342 339
295 297 300 295 300 302 304 305 303 298 302 306 308 312 313 314 316 317 318 323 319 322 324 327 330 335 337 341 344 343 342 339
295 295 291 298 306 308 308 310 309 308 305 308 310 315 316 313 315 315 318 321 326 325 325 330 333 335 337 340 341 341 339 337
292 291 298 303 308 307 306 305 311 308 310 312 312 312 310 313 314 316 316 316 320 329 331 329 334 337 337 337 338 338 336 335
293 291 292 302 309 314 310 301 312 312 311 310 310 307 307 315 314 314 314 318 320 323 328 329 331 337 334 332 334 334 335 335
296 295 298 308 311 314 300 300 312 311 310 311 308 309 311 315 317 318 320 324 324 328 333 332 333 332 331 331 332 335 334 333
300 296 294 312 311 305 307 308 310 312 312 312 314 315 316 317 316 316 316 319 323 327 333 333 332 331 326 328 330 332 332 331
302 299 307 311 310 313 311 311 310 313 313 314 316 315 316 316 319 323 323 325 326 325 334 329 329 329 327 327 330 330 329 326
305 305 309 310 311 312 312 311 313 314 313 313 314 323 323 324 325 324 325 324 327 328 326 324 326 329 328 330 329 329 326 324
305 310 310 308 310 311 311 311 312 313 314 314 317 320 325 324 325 325 324 324 327 325 324 324 328 328 327 327 328 326 325 325
301 310 307 307 309 311 308 309 310 310 309 309 311 312 322 324 325 322 320 322 324 322 322 323 325 324 326 326 325 323 322 323
309 312 310 310 311 312 309 310 309 308 309 308 309 309 309 309 315 320 321 321 322 322 322 322 321 322 322 321 321 320 321 320

GFSFLT2_sfc_thetae_006.txt.gz
Theta_e
302 303 303 296 293 297 290 287 289 293 298 305 309 311 316 320 322 324 329 332 334 335 336 337 339 341 343 345 346 346 347 347
301 302 301 300 300 293 289 286 285 291 293 297 303 308 311 316 319 322 327 331 333 336 337 338 340 342 344 346 346 346 346 343
298 297 297 296 294 292 292 290 287 286 291 300 304 308 311 314 320 321 324 329 331 336 339 340 340 342 344 346 347 346 343 339
293 298 301 301 297 295 293 288 289 290 292 304 307 308 314 315 319 318 323 328 331 336 338 339 339 341 343 345 346 348 345 337
290 292 296 295 296 293 292 291 289 291 293 305 307 310 314 314 316 318 322 325 329 332 335 337 337 340 342 345 346 348 345 335
292 294 296 295 298 297 295 290 291 293 297 302 308 310 313 316 316 316 320 324 327 329 332 334 335 338 341 344 346 346 342 336
299 297 298 298 298 298 296 296 295 298 297 303 308 310 312 317 318 318 317 320 324 328 329 331 332 335 339 342 344 345 339 337
296 298 298 297 299 300 300 299 299 299 299 304 310 312 313 315 317 317 318 319 321 326 328 329 331 331 337 340 342 345 341 338
292 294 294 291 298 298 300 300 301 297 303 305 308 311 312 313 316 318 318 320 319 321 324 326 328 331 335 339 343 344 342 341
293 291 286 297 302 303 303 306 306 306 305 307 310 313 314 314 315 316 318 320 320 320 323 325 327 330 335 338 341 343 342 342
289 288 293 303 306 306 306 304 310 309 312 312 312 313 312 314 318 317 320 322 325 325 325 326 329 332 334 337 340 342 341 340
291 289 290 299 308 313 310 300 310 311 310 309 310 304 307 313 316 315 318 321 324 328 329 331 331 335 334 335 338 339 340 339
295 293 297 307 309 313 300 299 310 311 312 311 308 311 314 318 318 320 322 325 328 330 332 332 334 335 333 333 335 338 338 339
298 296 293 309 310 303 308 309 311 313 312 312 313 315 317 319 319 321 322 324 326 327 331 335 334 335 332 332 334 335 335 333
300 299 307 310 307 310 312 312 312 311 313 316 316 317 320 320 321 323 325 326 330 331 331 332 332 334 330 329 332 332 328 327
304 306 307 307 309 310 311 310 311 313 314 317 317 321 321 324 324 323 325 326 328 328 326 326 328 329 329 331 330 328 326 327
303 307 309 308 310 311 310 310 310 310 312 312 312 312 313 316 323 323 323 325 326 325 325 327 328 327 330 329 328 327 326 325
299 307 306 305 310 314 309 309 310 309 308 309 310 310 312 310 319 322 323 325 323 323 325 325 326 326 328 330 330 329 326 324
304 306 307 308 309 310 306 306 307 307 308 307 309 308 310 310 313 319 323 325 324 323 323 324 325 326 327 327 328 327 326 321

GFSFLT2_sfc_thetae_009.txt.gz
Theta_e
307 309 311 306 303 311 305 300 301 305 310 313 318 320 322 325 329 331 333 336 337 340 342 345 347 350 352 354 355 355 355 360
306 309 308 308 310 302 303 298 296 301 303 305 315 318 322 323 327 330 334 337 338 341 342 346 347 349 352 354 355 356 355 357
304 303 303 304 303 304 306 303 299 297 301 315 318 324 322 323 327 330 333 337 340 342 344 346 347 349 350 351 354 354 355 358
301 306 307 308 306 307 302 301 302 302 303 315 317 320 322 324 326 329 335 338 339 341 343 344 346 346 348 349 350 355 357 357
299 304 306 303 305 307 307 307 305 299 302 316 316 317 320 322 327 329 332 335 338 340 343 344 345 348 348 350 350 352 356 354
298 301 305 301 303 305 305 301 302 303 306 312 316 318 322 324 327 329 330 335 337 339 344 347 349 350 351 350 351 352 352 353
306 308 306 304 302 303 303 305 303 305 306 312 320 322 325 327 329 327 328 332 336 338 344 348 349 350 351 350 354 354 355 353
301 306 305 302 304 304 305 305 306 307 308 316 321 323 324 325 328 327 328 330 334 338 340 342 345 346 347 350 352 355 354 352
301 303 302 299 304 305 306 308 307 304 311 319 316 319 322 326 328 330 330 331 333 337 340 341 342 344 344 347 350 352 353 352
302 301 292 303 309 309 307 308 311 311 314 319 321 325 324 326 329 331 333 334 334 333 337 341 341 342 345 347 350 352 352 352
298 298 303 305 309 306 305 306 312 312 316 317 318 321 321 323 325 328 330 332 334 335 336 339 339 342 344 346 348 349 350 351
303 297 295 307 313 316 315 304 317 318 319 319 318 312 320 323 324 328 331 334 336 337 338 339 341 342 343 344 346 347 349 351
304 301 303 311 313 316 304 309 318 319 320 319 318 321 323 327 330 333 334 336 340 342 342 343 344 346 346 346 346 350 352 352
304 302 299 312 313 310 315 319 320 320 321 320 322 324 326 328 329 332 332 333 337 339 341 345 346 347 346 345 346 350 350 348
306 305 312 313 312 317 322 320 321 323 323 324 324 326 328 329 331 333 335 336 339 340 340 342 345 347 344 344 345 346 346 342
307 309 309 312 313 315 316 316 319 323 321 322 322 327 330 332 332 333 335 336 338 339 338 338 341 342 342 340 344 343 341 340
308 308 310 311 313 314 315 315 315 317 318 317 318 319 326 329 331 333 334 335 337 338 338 337 340 340 341 342 341 339 339 338
305 311 312 311 313 312 310 311 314 314 314 316 318 318 319 321 327 327 330 335 336 337 337 336 338 338 339 341 340 338 335 333
308 312 310 310 310 312 311 311 312 311 313 312 314 315 317 318 321 320 325 328 333 335 336 337 338 338 339 340 340 337 335 333

GFSFLT2_sfc_thetae_012.txt.gz
Theta_e
310 311 312 309 308 315 309 310 306 309 313 318 321 322 325 326 330 333 336 335 337 340 343 346 348 353 358 362 361 361 361 364
310 311 312 311 315 307 309 302 300 305 308 310 316 318 321 325 328 332 336 338 336 340 342 346 349 351 354 357 360 360 360 361
309 306 306 308 308 310 311 308 303 302 306 318 317 320 320 323 329 331 335 338 339 339 342 346 348 350 352 354 357 358 359 363
303 309 311 311 309 311 305 306 308 307 307 319 321 321 321 322 324 329 335 339 341 342 343 345 347 348 350 352 353 356 362 364
303 306 309 306 309 310 311 312 309 304 306 319 320 322 324 325 328 331 335 339 342 343 344 345 346 350 350 352 352 353 359 357
301 305 308 304 305 308 308 306 307 307 311 315 317 319 321 323 328 330 336 339 341 343 345 347 351 356 356 352 353 353 354 356
309 309 309 307 306 306 305 307 305 309 310 315 318 320 321 323 325 330 335 337 340 342 350 354 355 358 357 354 356 357 357 356
308 310 310 307 309 308 307 307 307 308 309 317 320 322 321 322 324 327 335 337 340 344 347 350 352 354 354 355 355 358 359 357
305 309 309 304 309 310 310 309 308 305 311 316 317 318 321 322 326 329 335 338 340 342 346 350 351 354 353 356 357 357 358 359
306 309 299 309 315 314 312 311 311 311 314 316 319 321 324 327 326 328 336 338 341 342 346 350 351 352 353 355 357 357 358 359
304 302 307 310 315 312 310 309 314 313 315 316 319 322 325 332 332 334 338 342 343 344 347 350 349 351 352 351 354 354 355 357
307 301 299 311 315 319 319 308 316 316 315 317 318 314 318 333 331 332 337 342 343 343 345 347 348 349 349 349 351 352 354 356
307 304 307 315 315 320 307 309 322 318 318 318 317 323 331 334 334 337 339 341 343 344 344 347 348 347 348 349 349 353 355 357
307 305 302 315 316 312 319 326 326 326 325 326 329 331 333 336 337 340 342 343 344 344 345 348 350 351 351 352 355 358 358 357
310 310 316 318 314 319 324 326 327 328 329 330 330 331 333 334 335 336 337 337 340 342 346 349 351 352 352 356 356 357 356 355
313 314 315 316 318 319 322 325 328 330 330 331 329 331 333 335 337 337 338 338 340 341 343 346 351 353 354 354 354 354 349 344
313 314 313 314 317 318 319 322 322 324 326 330 333 334 334 335 338 338 339 341 341 341 344 346 349 351 350 351 351 349 345 344
310 313 315 312 312 314 315 316 318 319 318 322 323 323 324 326 329 333 339 342 343 343 344 346 347 349 350 351 351 348 343 343
316 314 312 312 313 314 313 314 316 317 319 318 319 320 321 321 324 322 328 331 339 341 343 345 346 346 347 347 347 345 342 342

GFSFLT2_sfc_thetae_015.txt.gz
Theta_e
313 313 311 309 307 314 309 311 307 310 315 320 324 324 325 325 326 327 335 339 338 339 341 346 349 356 359 364 368 370 364 373
312 313 312 309 313 307 311 304 303 307 310 311 318 320 323 324 324 327 333 338 339 338 340 345 347 352 358 363 366 366 367 369
313 309 307 307 307 311 311 310 304 303 309 320 321 323 322 324 325 327 331 337 339 339 340 343 345 348 353 357 362 364 366 367
308 313 314 311 308 309 307 307 309 309 309 321 322 323 323 324 326 328 331 336 339 340 341 342 344 344 347 351 351 359 363 367
306 309 312 308 310 310 310 312 311 306 308 321 323 323 325 324 325 328 330 333 338 340 340 342 343 347 345 350 348 351 360 361
304 307 310 306 307 309 309 306 308 308 312 317 320 321 323 324 327 327 329 337 337 340 344 346 348 351 351 349 348 350 353 354
310 311 311 308 306 307 306 309 307 310 311 317 320 322 323 324 326 326 327 334 339 341 350 354 353 355 356 354 355 353 356 355
308 310 310 308 310 309 308 308 308 310 310 319 321 325 324 324 325 325 326 328 339 342 346 355 355 358 359 359 359 359 362 360
304 310 310 304 309 310 311 312 310 306 311 317 318 321 323 325 325 325 326 329 334 341 345 351 353 361 359 363 362 363 365 369
305 308 299 311 317 314 311 313 315 314 315 316 321 323 325 325 325 327 330 332 334 340 346 353 353 353 359 359 366 366 368 367
303 303 308 311 314 315 314 314 317 315 318 318 318 318 321 325 328 329 329 332 334 343 346 357 356 361 361 359 363 364 365 367
307 302 300 311 318 321 320 309 318 320 321 318 318 310 317 325 325 328 334 334 337 345 348 354 358 355 358 355 357 359 362 363
305 304 308 317 319 321 308 311 327 327 327 325 320 319 324 331 329 331 335 337 347 348 353 357 357 354 358 357 355 357 358 359
307 303 300 320 320 313 321 327 328 329 329 328 330 323 331 335 336 337 338 342 346 348 350 354 357 358 360 358 361 363 363 362
309 309 322 323 323 325 326 328 329 330 331 331 329 333 336 338 340 342 344 344 346 347 350 353 358 358 359 366 367 365 362 364
316 319 319 321 324 326 328 327 332 334 332 332 333 335 336 337 339 340 343 345 346 347 348 354 360 359 360 360 361 360 360 354
317 319 320 321 322 324 325 327 328 330 329 332 334 334 335 337 338 338 339 340 343 345 346 349 353 354 355 357 358 354 348 345
311 320 320 317 320 322 320 320 322 324 323 325 329 328 331 333 339 339 339 341 341 344 346 349 351 352 354 357 354 349 346 344
317 321 318 317 317 317 315 317 318 319 320 320 321 322 322 323 327 324 336 340 341 342 345 348 349 349 351 354 352 351 348 348

GFSFLT2_sfc_thetae_018.txt.gz
Theta_e
313 314 311 308 304 311 305 308 305 309 313 318 323 325 325 325 328 328 335 338 339 342 344 347 348 350 355 361 364 366 366 366
313 314 313 309 312 303 305 299 300 306 309 311 319 322 325 324 326 327 330 338 340 340 344 347 350 351 356 360 363 366 366 366
312 309 307 307 305 306 307 306 302 302 307 321 323 326 326 326 327 327 329 336 338 341 341 347 349 351 353 356 362 365 365 365
307 314 314 311 307 307 302 303 306 306 309 321 324 324 327 327 328 329 331 334 338 341 341 342 345 348 352 355 358 362 364 364
304 309 313 309 309 309 308 308 305 303 307 321 324 322 326 327 328 331 335 338 338 340 340 341 343 346 349 353 355 360 362 361
302 306 310 307 308 309 307 302 304 307 311 316 321 323 323 326 327 331 338 343 339 339 342 342 344 346 347 350 352 355 359 359
308 309 311 310 308 308 307 308 305 308 310 317 320 325 325 329 328 330 335 336 342 343 347 345 346 347 347 348 349 351 354 356
307 310 309 308 310 309 308 308 308 309 309 317 322 325 328 322 325 329 332 335 341 344 352 353 348 348 347 347 349 350 350 353
302 308 308 304 309 310 309 310 308 305 312 319 318 320 325 328 327 329 330 332 340 344 346 350 355 352 348 348 352 350 353 354
304 306 297 309 315 313 311 312 313 313 315 317 318 321 322 325 327 328 331 332 338 334 346 351 349 353 355 353 353 355 354 357
302 301 305 308 312 312 310 311 316 315 319 319 320 320 320 323 325 327 330 339 338 333 337 352 351 356 356 357 355 356 358 361
305 300 298 310 315 321 319 308 321 323 322 322 323 315 320 324 325 325 327 329 335 339 343 353 355 356 357 355 358 355 358 363
303 301 304 317 319 321 307 311 325 326 326 325 322 327 334 334 329 340 332 329 335 353 350 354 359 357 357 356 358 361 363 368
306 302 300 321 318 310 322 327 325 327 327 328 331 331 333 334 336 338 341 334 342 357 359 361 360 363 360 360 365 367 368 366
307 307 326 325 325 327 328 328 331 332 331 329 328 330 332 338 339 338 344 347 348 354 359 363 365 367 361 367 364 364 363 363
310 318 321 324 326 329 330 331 332 334 336 336 332 335 336 339 341 345 347 348 353 353 354 358 363 364 363 362 364 363 363 362
316 321 321 323 325 327 328 329 328 330 329 330 330 330 337 339 342 345 348 350 353 353 354 359 362 361 362 363 364 358 355 351
313 314 318 321 323 324 322 323 325 324 323 326 324 322 327 329 336 341 343 346 344 344 347 352 355 356 360 361 356 351 346 344
314 314 316 316 318 318 318 318 319 320 321 321 323 322 323 324 325 326 339 344 346 348 349 353 353 354 356 356 353 347 344 345

GFSFLT2_sfc_thetae_021.txt.gz
Theta_e
310 310 307 300 298 302 293 296 294 299 303 310 319 320 322 322 324 326 326 332 332 333 336 339 341 347 348 355 355 356 358 358
310 310 309 304 303 295 298 289 290 297 299 302 308 316 319 319 321 324 325 331 333 333 335 339 342 346 350 356 355 357 355 359
306 304 302 302 300 298 296 297 292 292 298 306 311 319 319 320 322 321 327 329 333 335 336 340 342 345 349 354 355 357 358 356
300 307 310 306 301 298 295 290 294 295 297 310 311 319 322 321 322 321 322 332 334 335 336 340 341 342 348 355 356 358 360 358
297 302 306 304 305 302 301 295 293 292 297 310 311 317 320 321 323 323 323 329 333 334 337 339 341 342 346 352 356 358 359 359
295 298 301 301 304 305 301 296 296 297 298 303 310 315 316 320 321 323 325 326 330 333 335 338 341 343 344 348 355 357 359 358
303 304 305 304 305 305 301 301 297 298 299 303 306 316 317 320 320 321 323 329 328 332 333 336 338 341 344 346 349 355 356 356
301 305 304 302 306 307 305 304 303 303 302 305 309 319 319 319 320 317 320 329 331 332 333 334 336 338 341 345 347 349 353 354
294 302 302 298 303 305 306 307 305 300 304 307 308 312 318 320 318 317 320 329 330 331 337 335 337 339 340 343 347 347 348 352
295 298 292 301 309 310 308 309 308 306 307 309 310 311 315 315 314 314 323 326 333 335 335 342 340 340 341 342 344 345 345 348
293 295 298 303 306 306 305 305 311 312 313 316 318 310 308 316 317 316 315 319 322 333 337 339 344 343 341 341 342 342 342 344
294 292 291 299 309 313 315 303 319 320 319 318 318 308 312 324 324 323 321 320 321 325 331 341 339 346 342 340 341 341 342 346
296 293 297 306 310 317 302 304 320 321 320 320 316 318 322 326 324 325 326 320 321 323 329 340 341 347 345 342 341 345 348 349
298 294 292 316 314 308 311 319 323 321 321 318 319 322 322 324 325 324 327 329 324 322 335 342 345 348 347 347 348 348 357 355
303 306 315 321 320 321 327 326 327 329 330 330 329 329 332 336 333 336 336 339 347 348 349 349 349 351 348 354 357 358 357 358
306 311 315 319 321 327 326 325 325 328 329 329 324 326 327 331 336 341 344 343 346 348 350 351 355 356 356 356 357 356 355 354
307 313 314 321 324 324 324 324 323 323 323 323 323 323 324 325 331 337 340 344 348 351 350 350 353 354 354 355 357 351 349 346
305 309 310 312 319 322 320 320 320 318 318 319 318 317 319 321 325 329 337 339 339 344 346 349 352 350 350 351 349 344 340 340
312 313 311 312 312 315 314 315 318 318 317 315 317 318 319 317 320 321 326 336 340 338 340 342 345 346 346 346 344 342 338 336

GFSFLT2_sfc_thetae_024.txt.gz
Theta_e
308 307 304 298 293 298 290 290 289 294 298 305 312 315 321 323 324 324 325 327 329 332 335 336 338 343 346 347 346 350 350 349
305 306 308 300 300 292 287 287 287 290 294 298 303 310 315 320 323 325 327 327 328 329 334 337 338 344 347 349 348 350 352 352
300 300 300 300 297 291 293 292 289 285 293 301 304 307 312 321 325 326 328 328 329 329 333 336 339 344 347 349 348 351 352 352
297 302 306 305 300 295 293 288 291 295 295 305 306 308 314 318 323 326 328 327 331 331 331 335 338 343 346 351 350 351 354 354
291 295 299 298 302 301 291 290 293 289 292 303 303 306 317 317 319 319 321 322 328 331 331 333 337 340 344 350 351 352 353 353
293 296 297 295 301 301 299 295 294 295 294 298 301 304 309 310 319 320 321 325 328 331 331 334 337 339 344 347 352 353 354 352
296 300 302 301 300 302 298 300 296 299 294 297 300 301 306 310 315 319 319 324 328 330 332 335 337 339 342 347 352 353 353 354
294 301 302 300 302 303 302 302 300 297 295 301 304 304 308 312 318 316 320 322 327 331 333 334 337 338 340 345 351 353 354 353
287 297 300 296 301 301 302 303 302 297 300 303 303 307 310 312 316 315 314 323 326 330 332 335 338 340 339 343 350 352 353 354
288 292 289 299 306 306 302 304 304 303 304 305 307 308 310 315 315 313 317 320 326 330 332 336 338 340 342 343 345 350 351 352
287 289 295 301 303 303 300 301 307 304 305 307 310 308 315 318 313 311 315 318 324 331 333 334 334 338 340 341 343 345 347 350
292 289 288 297 305 310 308 298 316 315 314 313 311 302 307 319 320 318 319 318 316 329 333 335 334 336 337 338 341 342 344 346
292 293 294 301 306 313 300 300 316 317 316 314 313 312 317 320 320 320 320 324 318 315 324 335 340 337 335 337 338 343 345 345
295 293 290 310 312 302 307 317 318 320 316 316 320 329 333 332 327 323 321 324 326 316 314 321 336 339 336 335 339 342 342 342
299 300 307 315 316 323 325 323 323 325 326 328 326 328 331 332 336 339 339 341 342 323 316 319 333 341 339 338 340 339 341 340
303 308 309 310 313 321 322 320 322 323 323 325 324 326 328 332 333 336 339 341 344 344 341 343 341 338 341 343 342 344 344 346
304 308 311 310 311 316 319 319 318 318 318 319 321 320 322 322 324 331 335 338 340 341 345 345 347 349 352 353 348 351 352 353
302 309 305 308 312 319 315 315 315 315 315 317 317 315 317 317 319 323 329 335 334 334 335 339 342 345 352 354 353 349 346 341
309 312 310 313 313 313 313 314 316 315 314 313 314 315 316 314 316 320 328 333 334 335 337 339 323 320 342 346 347 345 339 335

GFSFLT2_sfc_thetae_027.txt.gz
Theta_e
306 303 303 296 293 297 287 288 286 291 296 302 309 312 315 318 320 321 324 327 329 331 332 334 335 339 342 342 344 348 349 348
303 305 302 300 297 291 285 285 285 287 291 293 301 306 310 316 318 321 324 326 328 330 331 334 335 338 342 343 343 346 349 349
299 297 299 297 294 290 291 288 287 284 291 299 302 306 308 313 320 322 323 325 327 329 331 333 335 337 340 343 343 343 347 348
296 299 304 302 299 293 289 287 289 292 291 300 304 306 307 309 317 321 325 326 327 328 329 332 334 336 339 343 343 344 347 347
288 291 295 295 299 300 296 290 293 289 290 300 303 305 310 310 315 318 323 326 326 326 326 330 333 335 340 343 344 345 347 347
287 289 294 292 297 299 297 293 294 294 293 295 299 301 304 308 312 316 319 322 323 324 326 329 332 335 340 343 346 346 347 348
291 295 296 297 296 299 295 298 295 297 293 297 299 301 302 305 306 311 314 319 322 326 327 328 331 335 339 343 346 347 347 348
289 296 297 296 298 299 300 300 298 298 294 299 304 302 301 303 305 309 315 319 321 326 328 328 331 334 337 342 347 348 347 347
284 292 293 291 297 299 300 301 300 296 299 300 300 301 302 303 304 309 311 317 321 326 328 330 332 335 336 341 345 348 348 349
284 288 285 296 302 304 301 302 301 299 301 302 303 305 306 306 308 311 313 314 320 322 324 331 334 336 337 341 344 347 348 349
284 284 291 298 301 300 298 297 303 303 303 303 304 306 305 311 311 313 315 316 322 326 327 328 332 336 337 339 343 347 347 348
287 284 285 293 306 311 306 297 305 305 304 304 304 298 304 314 314 313 313 312 317 325 326 328 333 336 336 337 340 345 347 349
288 288 292 303 311 315 295 298 313 310 307 307 304 305 309 318 318 317 316 318 316 323 329 328 329 335 336 337 338 342 348 350
290 289 286 310 310 305 309 316 315 314 313 313 317 324 325 324 326 328 327 332 329 312 318 325 329 332 334 335 339 341 343 345
295 295 305 309 312 313 314 316 319 319 323 328 328 328 330 331 333 336 337 338 340 338 333 328 320 331 329 334 337 339 341 342
301 305 309 313 314 315 317 315 316 320 323 327 327 328 328 329 332 335 337 338 341 342 342 341 345 339 331 334 333 334 336 339
301 307 310 313 312 315 316 316 317 317 317 317 320 318 320 321 323 328 331 331 332 333 333 331 331 330 330 333 339 331 334 336
298 307 306 308 312 315 314 314 315 315 314 315 316 315 317 318 320 324 328 330 331 331 331 327 319 318 320 320 321 327 340 339
306 310 311 312 313 314 314 316 317 316 317 316 316 317 317 317 319 320 325 328 323 323 330 333 326 320 320 321 327 321 330 333

GFSFLT2_sfc_thetae_030.txt.gz
Theta_e
302 301 302 293 293 295 287 286 284 289 293 300 305 306 314 317 320 321 322 328 330 333 334 335 335 339 342 342 343 344 345 345
302 302 301 297 297 290 285 283 281 286 288 294 300 305 308 313 316 320 322 323 328 331 333 334 336 338 341 343 342 344 346 347
298 297 298 294 292 289 292 287 285 282 289 296 301 304 307 310 317 319 320 322 325 329 332 333 335 336 339 342 342 343 347 347
291 296 302 302 297 291 289 286 285 286 291 300 301 305 307 309 312 319 321 323 324 328 330 332 333 335 337 340 341 343 347 348
287 293 294 293 298 294 296 289 290 288 291 304 302 303 305 306 308 313 319 322 324 324 327 330 331 334 335 339 341 343 344 347
285 288 292 290 295 296 296 293 293 293 293 296 300 301 303 306 310 314 317 319 321 323 325 329 331 333 335 338 341 342 343 345
289 293 294 294 294 296 293 297 294 297 297 299 300 300 304 305 309 310 314 317 320 322 324 326 330 333 335 338 341 343 343 343
288 294 294 292 295 297 297 296 295 298 296 299 303 302 303 304 305 306 308 312 317 324 326 325 329 332 335 338 341 343 343 343
283 290 291 289 294 296 296 297 297 294 298 301 300 301 303 304 305 305 307 311 316 320 325 327 328 332 334 338 343 343 343 344
283 286 281 291 298 300 298 300 299 299 301 303 304 307 306 307 308 306 307 309 315 319 323 329 330 331 335 338 342 344 344 344
282 283 289 293 301 303 301 299 302 301 302 303 304 304 305 306 306 308 310 312 314 320 324 327 329 332 334 337 341 344 344 345
283 282 282 292 307 312 311 297 307 307 304 304 302 298 304 308 314 310 313 314 316 320 325 325 329 332 334 335 339 342 346 347
284 284 289 298 308 314 295 297 312 313 314 304 302 307 309 313 318 316 316 320 321 323 326 327 331 334 334 335 337 342 347 349
284 284 282 306 307 304 306 312 315 315 317 317 305 309 316 320 324 326 332 338 333 327 326 319 330 334 334 334 340 344 347 348
288 287 298 308 309 312 313 314 315 315 317 320 315 324 329 331 334 336 338 339 340 341 342 343 333 333 332 332 340 341 342 345
294 298 303 308 312 313 316 315 316 317 318 325 326 328 329 332 332 332 333 337 340 339 336 335 336 335 336 340 344 338 338 340
293 299 306 310 310 311 315 317 316 317 316 316 322 320 324 325 327 329 330 329 330 328 324 322 323 322 323 325 336 338 335 336
289 299 304 306 310 313 315 315 317 316 317 317 319 319 322 321 324 326 324 324 328 331 332 328 324 322 321 326 326 332 339 340
298 306 308 311 313 315 315 315 316 317 318 319 320 322 324 324 325 324 329 329 329 329 330 332 332 330 331 328 331 331 332 333

GFSFLT2_sfc_thetae_033.txt.gz
Theta_e
305 307 307 302 300 305 298 297 296 300 304 309 312 314 318 322 325 329 334 337 339 342 344 345 346 349 350 351 353 355 355 356
305 307 307 304 307 297 299 292 291 297 298 302 310 311 315 318 321 326 330 334 337 340 343 345 345 348 350 351 352 354 355 355
305 302 301 300 300 302 302 299 294 293 297 309 312 317 317 318 321 324 327 330 332 338 342 345 345 346 349 350 352 353 354 355
300 307 308 305 303 303 297 296 298 298 298 310 312 314 317 318 321 324 328 332 332 333 338 340 344 345 346 349 350 352 354 355
298 302 304 303 305 305 304 304 299 295 298 311 310 311 316 317 319 322 325 328 332 332 334 340 342 344 344 347 348 350 354 354
296 299 299 298 301 304 303 299 299 299 302 307 310 311 314 317 319 321 324 329 332 333 337 340 342 344 345 345 348 349 351 353
296 296 297 297 298 299 300 303 300 302 303 307 310 312 315 318 320 321 322 325 331 333 339 342 343 345 345 346 349 350 351 352
292 295 297 296 298 299 300 300 301 303 303 311 313 315 316 317 320 321 319 323 328 334 337 338 342 343 344 346 347 351 351 350
288 294 295 292 297 299 301 303 302 299 305 310 310 312 314 315 319 321 321 323 325 327 333 339 339 343 343 345 348 350 351 352
288 291 285 298 303 303 303 304 305 305 307 310 312 316 319 320 320 321 323 324 327 324 330 339 338 337 344 346 348 349 351 352
286 288 292 295 299 304 305 304 313 309 308 310 312 314 317 319 320 322 324 326 326 326 328 339 340 343 345 346 349 350 351 352
288 284 284 297 303 310 314 299 316 317 317 313 311 307 311 322 320 320 321 324 327 327 330 332 339 340 344 343 347 349 352 353
286 286 290 299 306 315 300 303 318 320 321 321 318 315 321 324 323 324 326 327 327 329 336 339 341 342 344 346 347 351 352 353
287 285 282 302 303 299 311 318 318 320 323 323 324 326 328 325 323 330 335 334 328 333 334 338 342 345 348 350 351 353 354 356
290 290 300 304 306 311 316 315 318 322 324 325 324 325 329 324 337 341 345 345 348 348 344 343 345 348 347 348 351 353 354 356
294 296 299 301 307 309 319 320 323 324 325 324 323 329 329 336 344 346 343 345 348 347 344 342 346 349 350 352 352 352 353 356
293 297 299 302 305 310 314 319 322 322 321 321 329 332 336 340 340 339 337 336 335 334 332 333 336 337 341 348 354 350 350 350
289 299 300 303 308 314 317 317 322 319 321 325 329 330 336 335 335 336 337 339 338 338 337 336 335 335 337 340 345 352 351 347
297 301 302 306 309 314 317 321 319 318 325 326 328 327 327 326 328 326 335 336 336 332 334 336 339 339 337 342 343 342 342 343

GFSFLT2_sfc_thetae_036.txt.gz
Theta_e
310 311 311 307 303 309 302 304 301 305 308 313 317 319 321 322 324 327 336 340 343 345 347 350 352 356 358 362 364 363 361 367
309 311 311 309 311 301 303 296 295 301 304 306 312 315 319 320 323 326 332 338 341 344 346 349 352 355 358 362 363 364 363 363
309 305 305 306 305 306 306 304 298 298 302 314 314 317 318 321 324 327 331 335 339 341 345 347 350 353 354 357 361 362 363 365
305 310 311 310 307 307 301 301 303 303 305 313 315 317 320 321 324 327 330 333 336 339 342 345 347 349 350 353 355 357 362 366
303 307 309 306 308 309 308 308 304 300 304 315 316 316 319 320 323 326 328 331 334 336 337 341 345 349 349 350 352 354 360 358
301 304 307 304 306 308 307 303 304 305 307 311 312 315 316 318 320 322 327 329 331 334 336 338 344 350 354 349 351 353 354 356
306 303 303 306 305 307 306 307 304 307 308 312 314 316 318 319 320 321 323 326 329 334 338 343 345 350 354 351 353 353 358 355
299 302 301 300 304 305 307 308 308 308 309 316 317 318 318 319 320 321 322 323 325 330 339 343 346 348 349 354 353 355 359 359
297 302 300 297 302 304 306 308 308 305 311 315 315 316 317 319 320 321 323 325 327 329 334 339 343 348 348 354 354 357 359 362
295 299 290 304 310 309 306 308 310 310 312 314 316 318 319 321 321 321 322 324 327 328 330 335 338 337 344 349 358 359 360 361
292 293 299 301 303 304 304 306 311 311 313 314 316 316 317 320 322 324 325 327 328 329 330 336 336 338 340 345 351 354 359 360
294 290 290 301 307 309 309 302 314 316 316 319 321 310 314 321 323 325 326 328 328 329 330 332 337 339 342 343 348 354 358 359
290 290 296 304 309 314 300 309 319 320 321 322 321 325 330 333 332 333 332 330 332 334 333 336 340 342 343 345 347 353 355 356
291 289 287 304 303 300 309 313 318 319 319 320 323 325 328 331 334 336 335 330 334 337 335 340 348 348 348 355 355 357 359 357
293 293 303 306 305 310 310 310 312 317 318 322 323 325 328 330 336 338 335 336 342 338 341 345 352 351 351 359 359 359 359 361
295 298 300 303 306 308 309 309 314 316 317 319 321 324 327 334 339 337 342 347 348 349 346 350 354 355 356 359 359 358 358 360
297 300 302 303 305 307 308 309 310 312 317 318 320 324 329 337 341 343 349 351 352 351 349 350 354 356 358 358 358 357 358 358
293 301 301 303 306 308 306 306 313 315 319 321 322 327 333 338 343 346 345 344 343 343 343 342 343 345 348 354 359 356 353 352
299 303 304 306 307 309 309 312 314 316 322 323 328 330 335 336 340 336 345 345 341 340 343 347 345 346 347 350 350 349 348 352

GFSFLT2_sfc_thetae_039.txt.gz
Theta_e
312 313 312 308 305 310 305 307 303 305 309 314 319 320 322 324 327 328 333 339 342 345 347 350 351 355 357 362 367 370 369 371
311 313 312 311 313 303 305 299 299 304 307 307 314 317 321 322 324 327 331 338 342 344 346 351 351 354 358 362 366 369 369 371
313 308 307 307 308 308 308 306 301 301 305 316 317 319 319 322 325 326 328 335 341 344 346 350 352 352 356 359 365 367 370 370
308 312 313 312 309 310 303 304 306 306 307 317 318 319 321 322 325 327 330 334 340 342 345 347 349 352 354 357 357 364 366 370
306 309 312 309 310 311 310 309 306 302 306 317 318 318 322 322 325 328 331 332 336 339 342 343 346 352 352 356 355 357 363 364
303 307 309 306 309 310 310 306 306 307 309 313 315 318 320 323 325 327 328 328 333 336 339 341 346 353 356 353 355 357 359 360
309 310 310 309 308 308 308 309 306 309 310 314 316 318 320 322 324 325 327 328 330 332 337 345 349 356 359 353 357 356 360 361
306 309 308 306 309 309 309 309 310 311 311 318 320 321 320 321 321 321 323 324 328 332 335 339 343 348 354 359 357 358 362 361
301 307 306 301 307 309 310 312 311 308 313 319 318 319 319 320 321 322 323 325 327 328 330 336 341 347 348 357 360 359 361 365
299 303 295 307 314 312 310 312 314 314 316 318 319 321 322 324 323 323 324 326 328 327 330 337 336 336 347 350 363 363 364 362
296 299 303 306 309 310 308 308 314 314 315 317 318 319 319 323 324 324 325 327 329 330 330 339 334 337 340 344 356 362 362 364
298 295 295 305 310 312 313 304 315 316 316 316 318 312 315 325 330 334 335 335 335 332 331 332 336 334 336 336 343 358 361 365
294 294 300 308 312 313 301 310 318 318 319 321 320 325 330 332 332 334 337 339 339 339 335 340 342 338 346 346 345 353 361 365
294 292 291 309 307 305 311 316 316 319 321 320 323 326 328 329 331 334 336 339 340 339 340 342 344 344 353 355 358 365 364 365
296 296 307 309 308 312 312 311 312 314 316 318 319 321 324 327 329 332 338 343 342 337 343 345 348 351 357 365 371 369 367 369
297 301 303 305 308 309 310 310 311 312 314 315 314 317 321 323 328 331 339 343 344 346 346 350 353 356 358 363 365 368 368 370
297 300 303 305 307 308 309 310 310 311 313 311 313 316 321 323 329 333 340 347 351 352 352 352 357 359 359 361 363 359 361 360
295 303 304 305 308 310 309 308 310 310 310 312 318 320 323 325 332 336 344 351 350 351 351 350 352 354 359 363 362 361 358 358
299 305 305 307 309 309 309 310 310 312 314 313 316 319 324 327 334 338 347 347 347 347 348 350 349 349 351 354 357 360 359 360

GFSFLT2_sfc_thetae_042.txt.gz
Theta_e
313 313 312 307 303 309 303 304 301 304 308 313 319 320 322 323 327 329 333 336 341 347 347 347 346 349 351 355 360 362 362 364
312 313 312 310 311 302 304 297 297 301 306 306 313 317 320 322 324 328 332 336 342 345 347 348 348 349 352 356 358 362 364 363
311 308 306 307 306 306 306 304 298 298 304 317 317 318 320 322 325 327 332 335 339 345 348 350 349 349 351 353 359 362 364 365
306 313 313 311 307 309 303 302 305 305 305 317 319 321 322 323 326 328 332 337 340 344 346 349 349 349 350 353 355 361 365 366
303 309 312 308 309 309 310 308 305 302 304 318 320 321 323 323 326 328 332 337 339 342 344 347 350 351 351 352 353 360 364 366
301 306 311 307 307 309 308 304 305 306 308 313 315 317 323 325 328 330 334 336 338 339 344 346 350 352 353 353 354 355 361 363
308 310 311 308 307 308 307 309 305 308 309 313 318 319 322 325 329 330 334 335 339 339 345 347 350 353 354 355 356 356 356 360
305 309 309 308 309 308 309 308 309 310 310 318 321 323 323 325 326 327 330 332 335 337 347 350 356 354 354 355 357 358 358 358
299 307 307 304 309 309 310 311 310 308 315 319 319 320 322 323 324 324 323 328 333 337 343 349 349 359 357 356 357 359 359 361
298 303 295 308 315 313 311 312 313 315 317 321 322 324 325 325 324 327 327 329 337 329 336 343 337 337 350 359 360 358 363 360
296 298 304 307 311 311 309 310 315 316 317 318 320 321 323 324 325 325 329 333 332 334 335 351 346 351 349 351 359 360 358 363
297 295 295 307 312 315 315 305 317 316 316 316 318 311 321 332 332 333 335 339 342 342 342 343 350 345 352 349 354 356 357 359
294 294 301 309 311 314 303 306 318 321 320 318 317 324 329 331 331 334 337 340 343 345 345 347 349 350 353 354 346 355 360 361
294 293 293 308 308 305 313 314 314 316 317 319 322 323 324 325 329 331 334 336 343 344 347 349 350 351 357 356 368 370 363 364
296 297 310 310 308 311 311 311 312 312 313 315 316 316 317 321 327 328 333 336 342 347 347 350 351 361 360 362 373 373 374 372
297 301 303 305 308 309 310 309 310 311 311 312 312 314 314 319 324 327 332 336 339 346 353 358 370 360 368 369 370 373 370 375
297 301 303 305 306 307 308 309 309 311 311 311 312 312 314 319 326 328 334 337 342 348 358 361 364 366 367 370 370 368 370 369
293 301 302 304 307 309 308 308 310 310 311 312 313 315 318 319 324 330 335 338 344 354 355 357 356 360 363 366 370 370 365 362
296 301 303 304 306 308 308 310 310 311 313 312 314 315 316 318 320 325 333 338 344 352 353 354 354 353 356 361 364 368 366 365

GFSFLT2_sfc_thetae_045.txt.gz
Theta_e
313 311 307 302 299 301 291 294 291 295 299 306 311 312 313 317 329 330 331 336 337 338 338 338 341 344 346 349 349 351 352 354
312 314 309 304 304 295 296 287 288 294 297 299 304 307 311 312 321 327 332 336 338 338 339 339 341 345 347 350 350 352 353 355
306 305 304 301 299 300 296 294 289 289 295 305 307 309 310 313 315 324 330 335 339 340 340 340 341 344 346 348 352 353 355 354
297 306 311 306 302 300 295 291 293 292 296 310 310 312 313 315 316 322 329 335 340 340 341 341 340 342 344 347 352 354 356 356
295 300 305 304 304 303 299 297 293 292 295 311 311 312 314 315 317 319 327 332 338 340 340 341 341 341 343 345 350 353 356 356
292 296 300 300 304 303 301 296 295 298 297 307 310 311 313 315 319 318 326 331 336 339 340 342 342 341 342 344 347 353 355 356
301 303 305 305 304 304 300 300 298 300 301 306 309 313 315 317 319 322 322 330 334 337 339 342 342 342 343 344 346 349 354 356
298 304 305 304 307 306 305 304 303 303 301 311 313 316 317 317 318 319 322 327 327 332 337 341 343 343 344 344 346 348 350 354
291 302 304 298 305 305 305 306 305 300 304 311 311 315 314 315 316 316 316 318 323 326 330 340 344 346 346 347 348 347 348 350
291 298 290 302 311 311 307 308 307 306 312 312 314 317 317 317 315 317 321 322 321 327 325 326 336 347 348 349 349 349 348 349
289 294 298 304 305 305 304 306 313 313 314 316 319 322 322 327 327 327 328 330 332 333 333 334 333 331 343 349 349 350 350 351
292 291 292 298 305 307 309 299 310 313 317 315 319 312 316 325 327 327 330 332 334 334 335 334 334 336 339 344 348 347 349 353
290 290 296 300 304 311 298 300 308 308 311 312 309 313 316 322 324 328 329 329 332 336 338 336 337 335 336 334 337 348 351 352
289 290 288 303 303 297 305 308 308 307 307 309 309 310 311 315 320 322 326 329 331 331 334 339 339 335 330 337 338 348 349 350
291 291 300 303 302 305 306 304 304 305 305 307 308 309 310 310 317 320 323 328 330 330 335 338 344 338 334 339 349 348 349 352
291 295 297 302 303 304 303 304 305 305 306 306 305 308 308 309 316 318 323 325 329 332 336 344 353 351 351 353 352 350 352 350
290 294 296 301 300 302 303 304 306 308 307 306 306 307 309 310 313 314 315 325 326 331 333 344 347 353 353 355 354 354 354 358
287 293 293 294 298 301 300 301 303 305 306 310 309 306 310 310 311 311 312 312 324 328 333 344 344 345 347 350 351 352 355 356
292 297 297 298 300 301 300 302 303 305 307 307 308 310 308 308 309 312 312 311 323 325 333 338 344 342 345 346 350 348 345 353

GFSFLT2_sfc_thetae_048.txt.gz
Theta_e
308 310 309 302 299 301 291 289 290 294 297 304 307 307 324 328 331 331 330 331 334 335 336 337 339 342 344 343 343 347 348 348
306 308 309 304 304 294 289 287 283 290 292 298 302 304 306 325 328 331 331 334 333 335 337 337 339 342 345 345 343 345 349 349
300 298 302 299 300 297 297 290 289 285 293 300 302 304 305 314 328 330 331 334 333 336 337 338 339 342 344 345 345 345 347 350
294 302 303 308 297 297 293 288 288 289 294 305 306 307 307 309 326 330 332 333 334 336 337 337 338 341 342 346 346 347 349 349
290 292 298 296 303 297 294 292 289 291 295 304 305 307 310 310 312 328 331 332 334 336 336 337 337 340 342 344 347 348 349 349
284 289 294 294 299 299 298 293 292 293 295 301 305 306 311 309 311 319 329 331 334 336 336 337 337 338 342 344 349 349 350 350
289 292 295 296 301 301 296 297 295 297 296 300 302 307 309 310 313 321 329 332 335 336 337 337 337 338 341 343 346 351 351 351
285 296 298 298 304 303 301 301 298 298 298 303 308 312 313 316 317 320 327 333 336 337 337 338 338 338 340 341 344 349 350 351
284 296 300 296 298 303 301 301 300 297 300 307 310 315 317 310 314 317 321 331 336 337 338 339 339 340 339 341 343 346 349 350
284 292 288 297 302 302 303 303 304 308 309 312 318 320 321 324 324 325 326 326 326 326 330 338 341 341 341 341 342 343 344 350
285 290 296 298 299 298 296 298 303 305 313 319 320 319 318 322 325 325 327 329 329 330 329 330 334 341 342 342 342 342 343 344
286 288 288 294 301 304 305 292 302 304 305 310 314 306 309 317 323 324 327 329 330 334 336 332 331 334 340 343 343 343 343 345
288 290 293 297 301 306 292 295 303 303 304 304 301 304 307 317 318 324 325 328 329 331 333 334 336 328 331 338 342 346 347 347
286 288 286 299 300 293 296 301 302 303 303 302 303 306 308 314 315 319 322 326 330 332 335 338 340 332 328 329 333 341 347 348
287 289 298 300 301 303 301 299 299 301 303 303 303 305 308 310 311 311 318 320 327 329 335 341 350 338 342 345 346 348 340 344
286 291 293 296 300 300 300 299 300 301 302 305 303 306 306 308 308 309 310 311 321 326 328 334 345 348 348 348 350 349 344 343
288 290 294 297 298 299 300 301 301 302 301 304 305 304 306 306 306 307 308 310 316 322 326 329 340 342 344 345 347 346 348 350
287 293 293 294 297 300 300 300 301 301 300 302 305 304 307 305 306 307 308 310 312 319 326 329 333 340 341 343 345 343 342 345
297 299 297 298 299 301 302 302 303 303 302 301 305 305 306 304 304 309 307 310 315 320 325 327 332 338 339 340 340 340 340 340

GFSFLT2_sfc_thetae_051.txt.gz
Theta_e
300 304 305 300 297 300 291 287 289 294 295 303 312 317 321 324 327 327 329 329 333 335 336 336 337 337 339 340 342 343 343 344
298 303 305 304 303 294 290 286 283 288 292 299 301 305 318 322 324 326 328 330 333 335 335 335 337 339 339 341 341 344 344 345
296 295 297 297 300 298 297 292 291 284 291 298 303 305 312 318 324 327 329 331 331 333 336 336 337 340 339 340 340 342 345 345
289 299 300 296 298 295 296 290 287 293 296 301 303 304 312 320 324 328 330 333 333 332 335 336 335 339 340 340 340 341 345 345
287 291 296 293 296 301 295 291 290 293 295 301 301 303 305 308 315 325 330 332 333 333 334 335 336 337 340 342 342 342 343 345
282 286 290 288 291 293 293 294 290 293 297 298 301 301 303 305 309 320 328 331 333 333 333 335 336 337 339 342 344 343 344 344
287 289 290 289 289 291 292 295 294 296 293 296 300 301 304 310 310 311 317 328 331 332 333 334 335 336 339 341 344 344 343 344
285 289 289 288 291 294 295 298 295 294 295 299 308 315 318 316 310 309 318 328 331 332 334 334 335 336 338 341 343 345 344 344
280 288 292 289 295 297 298 298 298 293 297 309 313 316 316 318 317 313 322 328 330 332 334 335 336 337 337 340 343 345 345 346
280 284 287 294 300 300 297 297 299 302 307 315 315 315 316 319 320 323 324 325 330 333 335 337 338 338 338 341 342 344 346 347
280 285 294 296 297 295 294 293 299 299 302 311 316 317 314 316 321 323 326 329 328 330 333 335 338 338 338 338 340 342 344 347
285 283 288 293 298 301 301 289 298 299 299 303 311 304 306 312 319 321 327 329 330 334 330 333 334 339 337 337 338 338 342 346
285 284 292 297 298 302 288 289 298 299 299 299 300 301 305 311 310 316 320 326 333 340 336 334 328 339 338 338 338 339 341 342
287 288 287 299 299 291 293 297 297 297 297 299 301 305 307 308 307 309 310 321 326 336 341 340 329 333 331 335 334 342 343 342
286 288 297 297 300 298 299 297 297 297 298 298 302 302 305 304 305 307 309 312 322 326 335 341 346 346 345 343 345 341 341 343
287 291 292 296 298 300 299 299 301 300 300 300 299 303 304 303 304 305 307 311 317 323 324 330 339 342 342 345 346 347 347 344
289 292 294 297 299 299 300 301 303 304 302 301 301 302 303 303 303 305 306 312 315 320 322 323 332 338 339 341 342 341 343 344
287 295 295 295 299 301 299 300 302 303 302 303 303 303 305 303 303 305 305 312 318 320 320 321 323 333 337 338 339 337 336 338
296 301 302 301 301 302 300 302 305 304 304 303 304 303 304 303 304 307 307 311 315 317 318 318 319 323 334 337 337 335 333 335

GFSFLT2_sfc_thetae_054.txt.gz
Theta_e
299 300 299 296 293 297 289 287 287 295 296 304 308 311 317 321 325 329 332 333 335 336 337 337 338 338 338 339 339 340 340 341
297 300 300 297 301 292 289 285 281 289 291 298 303 307 313 317 320 326 331 332 334 336 337 338 339 340 339 340 340 341 341 342
294 293 294 294 295 295 295 291 287 285 291 300 305 309 310 316 321 325 329 331 331 332 336 338 340 340 338 339 340 341 342 343
287 296 298 295 292 294 293 290 291 289 293 303 306 307 310 312 321 325 329 330 331 333 334 335 337 339 338 339 340 342 343 343
285 288 294 292 291 289 288 291 292 292 293 304 302 303 305 308 314 321 326 329 330 332 333 335 334 336 338 339 340 342 343 343
281 284 288 287 290 291 287 284 292 295 297 299 304 302 303 305 307 311 325 328 329 331 332 335 335 336 338 339 340 341 342 343
287 289 289 288 289 290 287 289 287 294 296 299 302 304 302 306 310 310 311 326 329 331 331 333 335 336 339 340 341 341 341 343
284 288 288 287 291 292 292 292 292 293 293 302 314 316 315 317 319 320 313 314 328 333 334 333 335 335 338 340 342 342 341 341
279 286 287 286 291 295 295 294 296 292 297 304 312 312 312 314 318 320 323 319 314 329 333 334 335 337 337 340 343 343 342 343
281 286 280 292 300 299 295 295 296 297 300 313 313 314 313 312 314 317 323 326 322 326 333 335 337 337 339 341 342 343 343 343
280 282 288 296 296 294 292 292 296 295 298 302 310 314 313 309 310 313 318 328 329 331 334 336 336 338 339 340 341 343 343 344
285 282 287 292 295 300 299 289 297 296 295 298 310 299 301 307 309 312 316 327 336 332 334 334 336 337 337 339 340 342 344 346
282 284 288 294 296 301 290 289 296 296 296 296 298 301 307 308 309 314 317 323 337 337 332 333 337 337 336 338 339 342 346 349
286 285 285 295 297 291 294 296 297 297 297 296 299 303 305 306 308 314 317 320 327 340 341 339 336 338 336 336 340 342 343 346
286 286 294 296 295 298 298 296 297 297 299 299 298 301 304 303 306 315 319 320 323 325 336 340 345 344 342 345 342 344 342 342
288 292 294 297 299 300 300 298 300 302 301 300 298 301 303 304 305 308 315 319 321 320 320 324 337 341 343 347 350 347 344 345
288 293 296 299 301 301 301 302 302 303 303 302 303 301 303 303 305 307 313 317 318 318 318 319 324 336 339 341 341 343 345 347
287 295 296 297 302 303 301 301 302 303 302 304 305 304 304 303 305 306 310 315 316 316 316 317 319 323 332 339 339 338 338 340
296 301 301 302 303 303 303 304 305 305 305 304 307 306 305 305 304 308 309 313 315 315 315 315 317 318 326 333 338 338 337 339

GFSFLT2_sfc_thetae_057.txt.gz
Theta_e
302 303 305 301 297 303 296 298 295 297 303 310 315 317 319 321 331 334 337 338 339 341 342 344 345 347 348 349 350 351 349 353
299 303 304 303 306 297 297 289 289 295 298 301 311 313 318 319 326 332 337 339 340 341 342 344 345 347 349 350 350 351 351 352
297 298 299 300 299 301 302 298 292 291 296 310 311 317 318 320 324 328 334 338 340 341 344 345 345 347 348 348 351 350 351 352
290 300 301 300 300 302 296 296 299 298 297 311 315 317 319 321 324 328 333 338 340 342 343 344 345 346 346 347 347 349 352 352
286 293 298 297 297 299 301 301 299 295 297 312 314 314 318 320 322 328 334 337 340 341 342 343 346 347 347 347 346 347 351 349
284 287 291 290 293 295 296 296 298 300 303 307 310 313 316 317 318 321 328 335 338 339 342 344 346 348 349 347 347 348 348 348
288 289 290 290 290 293 292 297 296 301 303 309 313 314 317 319 318 320 320 325 335 338 342 344 346 348 349 349 350 349 350 350
286 289 291 288 291 293 294 296 297 299 300 308 315 321 320 322 324 326 328 329 328 338 341 343 346 345 347 349 349 351 351 351
282 290 290 287 292 294 297 299 299 298 305 311 314 318 317 317 319 322 326 330 333 331 339 343 345 346 346 348 350 350 351 352
283 286 281 294 302 302 299 299 301 302 305 310 319 319 318 317 316 318 322 325 331 336 335 346 343 344 347 348 350 350 350 352
281 284 290 297 298 298 299 296 299 299 302 305 311 320 319 314 314 317 321 328 333 338 340 336 346 348 348 349 350 350 350 351
284 281 283 291 296 300 302 295 300 301 302 304 315 313 311 310 311 318 326 331 336 344 342 336 347 348 348 347 350 349 351 353
283 281 288 292 295 300 291 294 300 302 302 303 304 306 308 309 312 322 327 331 344 342 343 348 349 347 347 348 348 352 353 353
285 282 281 294 294 293 298 301 301 303 304 304 306 307 307 308 311 316 319 325 336 344 342 346 349 349 348 349 354 356 357 355
289 288 294 297 296 300 303 301 300 302 305 305 303 303 307 308 309 313 314 315 323 336 339 346 349 349 348 352 355 357 357 358
287 292 294 298 301 303 305 303 303 305 305 306 304 304 305 307 310 311 314 314 315 317 322 332 343 347 350 354 353 354 355 357
289 294 295 296 301 303 306 306 305 306 306 305 306 307 307 307 308 312 314 316 315 314 315 317 328 338 345 348 356 353 353 352
288 296 297 296 300 302 303 305 306 306 306 307 308 308 309 308 310 312 313 315 317 316 315 316 322 326 332 339 348 348 349 352
295 299 298 299 300 301 301 302 302 302 302 303 306 307 309 309 310 311 314 315 317 317 318 319 322 323 327 331 338 343 346 346

GFSFLT2_sfc_thetae_060.txt.gz
Theta_e
306 309 309 305 301 307 301 303 299 301 303 311 318 320 323 326 331 334 338 341 343 346 347 346 346 350 353 356 357 358 356 362
304 306 308 306 310 300 301 294 294 300 301 301 311 316 321 323 325 331 336 341 343 345 347 349 348 349 351 353 356 357 356 358
298 301 301 303 302 304 304 302 296 295 300 311 311 314 319 322 326 328 336 340 343 345 347 349 350 349 350 351 353 354 356 359
294 301 307 305 303 304 299 298 301 301 302 313 314 315 319 322 325 329 332 338 342 344 347 348 349 349 348 350 351 353 357 361
291 295 300 299 303 306 305 306 302 298 301 314 316 318 319 320 324 329 331 334 339 343 345 347 348 349 348 349 350 352 355 354
288 291 294 294 299 302 303 299 301 303 306 311 313 315 319 323 324 325 330 335 338 342 344 347 350 354 353 349 350 351 352 352
292 293 293 292 293 296 297 301 299 304 305 312 314 315 318 321 324 324 323 329 336 340 344 350 352 355 355 351 353 353 357 352
289 292 292 290 293 295 296 299 301 303 305 315 318 320 323 323 326 327 328 329 330 338 343 346 349 353 356 357 355 356 359 356
286 291 291 288 294 297 298 301 302 299 307 314 315 317 323 323 324 325 327 331 335 338 338 343 347 351 353 358 358 358 360 360
286 289 281 292 300 301 300 302 305 306 309 313 317 324 325 324 324 326 329 331 334 336 340 342 345 346 352 354 360 360 361 361
285 286 289 294 298 298 296 299 307 307 310 313 316 325 326 324 325 327 331 335 338 340 342 345 345 347 351 351 355 356 360 361
287 282 282 292 297 301 303 298 307 307 309 311 315 311 318 319 321 327 333 337 340 344 347 348 348 345 347 349 352 356 358 361
286 284 289 297 298 300 291 297 306 308 309 311 315 315 315 312 317 322 325 333 341 349 350 350 351 345 352 352 352 356 356 357
288 285 282 300 298 290 296 303 304 305 308 308 312 311 310 311 313 317 318 324 335 348 349 349 347 347 357 356 358 360 360 358
290 291 299 299 298 300 301 302 303 303 307 308 309 307 307 308 312 313 316 318 318 335 346 353 352 352 352 362 362 362 361 363
288 294 295 298 301 304 305 304 306 306 307 307 308 309 308 308 309 310 312 315 317 319 325 338 351 355 355 358 360 360 360 362
288 292 295 297 300 303 304 307 306 308 308 308 309 309 308 308 309 310 312 314 319 317 319 325 336 341 350 357 358 357 358 359
287 294 295 295 299 301 301 301 302 303 303 306 306 307 309 310 311 313 313 316 319 319 319 321 324 328 334 343 358 356 355 355
293 299 297 298 300 301 300 302 302 302 302 302 304 306 308 310 313 313 316 317 318 319 319 322 323 325 328 335 347 353 351 356

GFSFLT2_sfc_thetae_063.txt.gz
Theta_e
307 309 309 307 303 308 303 305 302 304 306 310 318 321 327 326 332 333 339 341 342 344 345 348 350 354 355 359 363 365 360 365
304 308 309 308 311 302 302 296 295 302 305 304 309 314 320 325 328 332 338 341 343 344 345 346 348 351 355 358 363 362 362 364
302 302 302 304 303 306 306 303 297 297 303 314 312 314 318 322 327 332 338 339 342 344 347 347 348 349 351 354 359 360 362 364
297 303 305 304 303 303 300 300 303 302 304 316 317 316 319 323 326 329 333 338 341 343 347 348 349 349 350 351 352 357 360 363
293 298 302 299 304 306 305 305 303 299 302 317 317 316 318 319 323 328 331 336 340 342 345 347 350 352 349 350 350 352 359 358
290 294 298 297 298 303 304 300 301 303 306 312 315 316 319 321 323 326 332 335 336 339 343 347 351 356 356 351 351 351 353 354
295 296 297 296 297 300 300 304 301 305 306 312 315 316 319 322 325 326 327 330 333 335 343 354 356 359 358 353 356 354 356 354
292 295 296 293 296 297 300 302 303 304 305 314 316 319 320 321 324 327 330 328 331 338 342 345 351 359 359 359 357 356 358 355
288 293 294 290 294 296 297 301 302 300 307 314 314 316 321 323 326 327 329 332 335 337 340 344 348 355 357 360 359 359 361 360
288 291 282 294 300 300 299 300 304 305 308 312 314 316 319 329 328 329 331 333 335 336 339 343 345 349 354 357 362 362 360 365
285 286 290 294 300 301 301 302 305 305 308 311 313 315 318 329 329 330 334 337 339 341 342 344 344 347 352 354 362 362 364 362
288 284 282 294 301 304 306 297 310 309 309 311 314 308 313 323 325 329 332 335 339 343 346 346 348 348 346 350 355 360 364 364
288 286 290 297 301 303 293 296 305 309 310 313 312 316 319 321 324 326 329 331 331 340 350 353 353 350 350 351 354 361 364 366
290 287 283 304 302 294 302 305 306 308 310 308 311 313 314 318 319 320 324 327 328 331 342 358 356 355 357 354 361 366 366 365
292 292 302 302 301 305 306 304 303 307 307 308 309 311 312 313 315 316 319 324 324 324 330 335 352 356 359 361 369 367 367 366
292 297 297 296 302 301 304 305 305 308 308 308 308 310 308 310 312 314 318 320 321 321 323 324 330 341 349 364 369 369 367 368
290 293 293 295 298 299 302 305 306 307 307 307 308 308 309 310 312 316 318 320 319 318 319 321 323 327 332 342 356 360 365 363
286 292 293 295 298 299 299 301 303 304 302 305 305 306 308 311 313 315 317 318 319 318 318 320 321 323 325 329 334 355 356 358
292 297 296 297 298 299 299 301 303 303 303 303 306 307 307 309 314 315 317 317 317 318 319 320 320 320 322 325 329 343 357 358

GFSFLT2_sfc_thetae_066.txt.gz
Theta_e
307 308 308 305 302 307 301 303 299 302 306 311 313 316 329 326 329 328 335 340 342 344 345 348 348 347 349 353 355 357 356 358
305 308 308 305 308 301 301 294 294 300 303 304 310 312 318 327 328 331 333 332 338 344 346 348 349 350 350 354 355 358 357 359
302 301 301 303 302 304 304 303 296 295 301 314 317 315 316 328 329 326 330 332 337 334 347 348 349 351 351 352 356 358 360 358
296 303 305 303 303 303 299 299 302 302 301 315 317 317 317 318 329 329 332 331 332 332 342 347 348 349 351 352 354 359 360 359
293 298 302 299 301 302 302 302 301 299 301 314 317 318 320 318 322 331 334 331 334 339 344 345 347 349 350 352 352 358 360 359
289 294 298 296 299 300 299 297 298 300 303 312 314 315 318 320 324 326 334 334 338 341 339 348 348 348 350 351 353 354 358 358
294 296 296 296 296 298 297 299 298 302 303 309 316 316 318 322 325 326 327 331 334 343 339 346 350 351 351 351 352 353 354 355
291 295 296 294 296 297 297 299 300 301 303 312 316 317 318 322 326 328 332 333 338 340 347 347 351 354 354 353 353 353 353 354
288 293 292 289 295 296 297 299 300 298 305 312 311 315 317 321 323 326 330 333 335 337 340 345 347 355 356 355 356 354 354 355
287 290 281 293 300 300 298 299 301 302 304 308 309 316 318 321 322 325 331 335 337 336 340 343 345 347 358 358 358 358 354 357
286 285 290 293 297 299 299 299 303 306 308 307 308 310 315 323 327 326 329 333 336 339 342 347 348 348 350 358 357 356 358 356
289 283 281 292 299 304 303 294 307 308 310 311 314 301 308 320 323 325 328 331 333 332 335 343 350 349 348 349 359 355 355 360
288 286 289 298 301 303 290 294 306 306 307 310 308 313 315 318 321 322 323 327 331 332 334 341 343 349 350 350 350 360 360 359
289 286 283 302 301 293 299 304 304 306 305 307 309 312 314 316 317 318 319 323 327 327 329 335 338 340 345 353 354 360 364 361
293 292 302 302 299 302 303 301 304 305 307 308 309 310 312 312 314 316 319 322 323 322 323 327 330 333 336 350 361 360 364 362
291 296 298 299 302 301 301 301 305 308 308 309 309 311 312 313 314 315 318 318 319 320 318 320 323 326 330 339 345 361 361 364
289 295 295 297 297 297 299 301 302 304 306 307 308 309 309 311 313 315 317 318 319 318 318 319 320 321 324 331 337 351 365 364
286 291 291 292 297 297 297 298 301 302 303 305 306 308 308 310 313 315 317 317 318 319 317 318 318 318 323 328 333 342 359 361
291 296 295 295 297 298 297 299 301 302 303 303 305 308 308 308 311 313 316 318 316 315 314 316 316 317 319 323 327 333 346 348

GFSFLT2_sfc_thetae_069.txt.gz
Theta_e
303 303 303 299 295 298 292 295 290 294 298 303 307 321 323 322 325 332 334 333 333 338 338 338 340 340 344 344 344 348 347 343
300 302 303 300 300 291 292 285 284 292 294 296 303 308 321 321 328 325 329 333 336 338 339 339 340 342 343 346 345 348 348 346
296 293 294 296 294 293 293 291 287 287 292 303 305 307 312 324 326 323 327 332 336 337 337 337 338 342 343 346 346 348 347 350
290 298 300 297 293 291 289 289 293 292 294 308 307 309 316 324 329 327 331 334 334 337 338 331 333 342 342 344 347 349 350 350
287 290 295 293 296 294 292 291 290 287 293 309 311 312 317 319 325 327 328 332 329 329 325 327 333 338 343 344 348 350 351 349
282 287 291 290 293 295 292 285 287 289 294 301 307 309 312 314 324 325 328 329 329 327 329 331 336 338 344 344 347 351 352 352
289 292 292 292 292 294 291 292 286 291 293 298 308 309 313 318 324 326 328 329 330 331 332 338 340 342 342 346 346 351 352 353
289 293 292 290 293 294 294 294 294 294 294 301 305 311 312 314 319 322 326 331 335 335 338 340 344 338 341 344 347 348 351 353
283 290 290 285 290 292 293 296 295 290 295 300 301 303 314 320 319 322 324 325 327 331 335 338 339 340 336 339 348 348 348 352
283 285 279 289 296 296 294 296 301 302 301 307 308 311 317 321 321 320 321 324 326 327 329 335 339 338 339 342 342 345 346 348
282 281 286 290 292 296 295 294 302 301 303 305 309 311 311 315 320 319 318 321 324 327 328 332 340 342 341 342 339 337 345 348
285 279 278 289 298 302 300 288 301 301 301 302 305 300 304 312 317 317 318 319 322 325 326 328 333 336 339 331 330 332 343 350
284 284 287 296 299 301 287 288 301 301 301 302 301 305 309 312 313 314 316 318 322 321 321 324 327 328 331 335 341 346 350 352
285 282 280 298 299 291 295 298 299 300 300 301 304 307 309 311 311 312 313 318 318 317 319 321 323 322 325 327 332 337 342 352
288 289 295 298 297 299 299 296 298 298 301 304 304 305 309 309 310 312 314 316 316 314 316 318 320 320 319 322 327 330 335 347
286 292 291 295 296 297 297 297 298 301 302 304 304 307 307 309 309 311 314 314 316 315 314 315 317 319 320 322 325 327 332 344
288 291 291 294 294 296 296 298 299 301 302 303 303 305 307 307 307 309 311 313 313 314 312 313 315 316 319 320 321 323 327 340
285 292 291 291 295 297 295 296 298 300 300 302 304 303 306 305 307 310 312 314 313 313 311 310 312 313 317 319 319 321 324 338
292 295 295 296 297 298 296 296 298 299 300 300 302 303 305 306 307 309 313 312 312 311 310 309 309 312 316 317 320 320 321 327

GFSFLT2_sfc_thetae_072.txt.gz
Theta_e
300 299 297 296 292 295 288 286 286 290 295 301 303 313 322 321 325 329 332 333 334 337 335 336 337 337 340 342 342 342 342 342
299 299 298 293 296 290 287 283 282 288 290 293 299 307 316 320 322 326 333 333 335 337 339 339 338 339 340 342 342 344 343 342
294 290 289 291 289 288 288 288 284 283 288 299 303 310 313 319 324 325 331 333 335 338 339 339 338 339 341 341 341 344 345 343
286 294 297 293 289 286 283 283 287 288 290 304 308 311 318 322 322 326 331 334 335 337 338 338 336 336 340 342 342 342 346 345
284 287 291 290 291 288 287 284 283 284 288 302 308 314 319 321 324 327 328 330 331 332 334 336 337 335 337 341 344 344 345 345
279 283 287 287 290 291 286 281 282 284 289 294 299 306 312 320 324 325 327 330 331 329 332 332 332 334 334 340 345 345 345 345
285 290 291 291 290 291 287 287 283 288 288 292 297 300 311 317 323 325 328 331 331 332 332 333 335 336 341 341 343 347 346 346
286 291 290 288 291 292 291 291 290 291 290 304 307 313 316 317 321 323 326 326 327 332 337 336 337 339 341 341 342 347 346 346
278 288 287 282 287 290 291 292 294 292 296 303 304 308 308 311 317 320 323 325 326 328 330 335 339 340 338 338 341 342 346 348
279 283 276 286 292 294 293 297 299 299 300 302 303 306 308 311 314 315 319 322 325 327 330 336 337 337 339 340 343 342 343 347
278 278 284 288 291 290 292 293 298 297 299 301 303 307 305 309 312 312 314 319 324 326 327 331 329 330 336 341 341 339 337 338
281 276 276 286 296 300 297 287 299 299 298 298 300 295 299 307 311 312 314 319 320 323 323 323 323 326 330 334 336 336 338 337
280 280 285 293 295 299 284 285 297 298 298 297 295 299 303 307 309 312 315 317 318 319 319 321 322 323 323 326 328 329 333 334
280 276 278 294 296 289 293 294 295 296 297 297 299 303 305 307 308 311 313 316 317 316 318 319 320 319 318 319 323 327 330 331
286 288 293 296 295 296 295 292 293 295 297 299 298 301 303 305 305 308 312 314 315 315 315 316 317 316 315 318 321 323 326 329
283 289 291 293 295 294 296 295 295 296 297 298 298 301 301 303 305 305 309 312 314 314 313 313 314 315 315 317 319 320 323 326
287 288 291 293 294 294 296 296 297 298 298 300 300 301 301 301 303 304 306 310 313 310 310 310 311 312 313 316 318 318 320 323
280 287 291 292 296 297 296 295 296 295 296 300 301 301 302 301 303 304 305 311 313 312 310 307 308 309 312 314 316 317 318 320
288 292 292 294 296 298 297 297 298 297 297 297 301 301 302 302 304 306 309 309 305 308 305 305 306 306 310 311 314 313 314 318

GFSFLT2_sfc_thetae_078.txt.gz
Theta_e
297 295 293 291 287 290 285 283 285 287 294 299 303 309 317 320 321 326 333 335 334 336 331 334 334 335 336 337 338 340 342 341
295 295 295 291 291 287 286 282 281 285 289 290 293 296 306 317 319 322 326 333 334 335 332 333 335 335 337 339 338 339 342 342
290 287 285 287 285 285 285 284 282 282 286 294 294 300 301 315 320 324 325 332 333 335 334 333 335 336 336 339 339 339 341 342
283 290 292 288 285 283 283 282 281 284 285 295 302 308 312 317 321 325 328 329 332 334 334 334 333 335 335 337 340 340 341 342
281 285 288 287 288 283 282 281 280 283 285 297 306 308 310 313 321 322 327 328 330 333 334 334 336 336 336 337 338 341 341 341
279 281 285 286 288 288 283 281 281 283 286 295 301 305 307 309 317 322 324 325 330 332 331 334 335 336 337 338 340 340 341 340
285 288 288 287 287 288 285 284 282 285 288 296 300 304 305 307 310 314 320 320 322 325 333 335 337 337 337 338 340 340 340 341
282 288 287 286 288 289 288 289 288 289 291 299 303 306 305 305 307 309 314 317 319 321 321 327 327 329 334 338 340 342 340 340
277 284 284 280 285 287 289 292 289 285 292 299 299 302 303 304 306 307 311 315 316 319 319 322 323 325 327 331 339 340 342 342
277 278 275 282 289 291 293 296 297 296 297 298 298 299 303 304 303 305 308 313 315 317 319 320 323 321 325 331 338 339 340 343
277 276 281 286 291 291 289 290 296 295 296 297 298 299 301 302 303 305 307 311 315 316 319 320 320 319 322 327 327 329 333 338
278 275 276 283 293 296 294 285 295 296 294 293 295 289 299 300 301 304 308 310 314 316 317 318 319 318 318 322 322 322 324 327
278 276 282 291 293 296 283 284 294 294 294 292 291 293 296 299 300 302 305 307 312 313 315 316 318 316 315 316 317 320 323 325
281 277 276 294 293 288 290 291 292 293 293 292 293 294 296 297 298 300 301 304 307 308 311 315 317 313 312 312 316 319 321 324
281 281 290 293 291 293 293 290 291 292 293 294 293 293 295 296 297 299 301 303 306 306 308 313 315 314 310 312 315 317 318 320
281 284 287 291 292 293 293 292 294 296 296 296 294 295 295 295 296 297 300 301 304 304 305 308 313 312 311 313 313 314 314 316
280 284 287 289 292 293 294 296 297 298 297 297 297 297 296 296 296 298 299 301 302 303 304 305 311 310 311 311 312 310 312 312
280 286 287 287 292 294 293 294 295 297 297 299 298 297 297 296 298 299 299 301 301 302 303 305 309 308 308 310 309 309 308 309
287 289 289 292 293 294 294 295 298 298 299 297 298 298 297 297 298 301 302 302 301 301 302 305 309 306 306 307 306 305 306 307

GFSFLT2_sfc_thetae_081.txt.gz
Theta_e
300 300 300 299 299 301 296 295 297 297 302 307 309 314 319 324 327 329 331 338 341 342 340 342 343 344 346 348 350 350 350 353
298 300 300 300 299 297 299 292 291 295 296 297 306 312 318 319 322 328 333 333 340 343 341 341 343 344 345 347 348 351 350 352
297 294 292 297 297 296 299 295 294 293 294 304 310 314 312 316 323 326 334 333 338 343 344 343 343 343 343 345 346 348 349 353
291 296 296 295 293 294 297 293 295 298 293 310 313 314 314 316 322 325 330 336 339 340 343 341 342 343 342 344 344 346 349 350
290 294 297 294 295 294 293 296 294 295 292 310 314 315 314 316 320 322 323 324 325 337 340 341 340 342 343 343 344 346 347 345
290 291 294 292 292 294 294 294 293 294 294 302 309 312 313 316 319 320 320 319 321 321 326 329 340 343 343 344 345 346 347 347
293 293 293 292 291 292 292 293 293 294 296 303 308 310 311 315 317 318 318 318 318 319 320 324 325 329 337 343 345 346 346 346
289 292 291 290 292 292 292 293 293 294 296 305 309 311 310 311 313 314 316 317 318 319 320 320 321 322 328 334 340 347 345 345
286 290 289 287 291 291 293 296 295 291 299 305 304 305 307 309 309 310 312 315 318 318 320 321 321 321 323 329 336 344 344 347
288 288 282 290 295 295 294 298 301 301 302 302 302 303 307 306 306 308 311 313 315 318 319 321 323 322 323 327 328 332 343 345
287 286 288 290 295 295 295 294 301 301 301 301 303 304 306 306 305 305 307 311 313 316 318 320 322 323 321 322 323 324 326 332
288 283 282 290 296 299 299 290 299 300 298 298 301 298 304 304 304 304 305 307 309 312 315 317 319 322 321 316 319 318 319 323
288 287 289 295 297 300 288 292 299 299 298 298 297 299 301 303 303 304 305 306 308 310 311 313 317 319 319 318 314 318 321 321
288 287 284 299 297 293 297 298 299 298 298 297 298 299 300 301 302 303 303 305 306 307 309 312 314 317 317 318 317 317 320 320
292 293 298 300 298 300 299 297 297 297 298 298 298 298 300 300 301 302 303 304 305 306 307 310 312 314 315 318 320 315 315 318
290 294 297 298 299 299 299 298 299 299 299 299 298 298 298 300 301 301 302 303 305 305 306 307 310 312 314 318 319 318 314 315
291 292 294 296 298 299 299 299 299 300 300 299 300 300 300 301 301 302 301 303 305 304 305 306 308 310 312 316 317 316 316 315
294 298 298 297 299 300 299 299 300 300 300 302 302 301 301 300 301 301 300 302 305 306 306 307 307 308 311 316 316 312 311 312
297 298 298 300 301 302 300 300 301 301 302 302 303 301 301 300 299 300 300 302 301 302 307 309 310 309 310 315 315 312 309 308

GFSFLT2_sfc_thetae_084.txt.gz
Theta_e
303 306 306 308 305 309 303 306 302 304 307 312 317 321 325 328 330 335 336 339 342 345 346 346 348 350 352 354 356 357 357 359
302 304 306 308 311 302 303 298 297 301 304 305 313 317 321 322 325 331 339 338 341 346 347 348 348 350 353 354 355 357 357 357
302 301 301 303 304 305 306 304 299 298 301 312 315 316 317 321 323 326 330 339 342 346 346 349 349 350 350 352 354 356 357 356
299 301 302 302 304 305 301 301 304 303 300 315 319 318 320 322 321 323 326 333 330 334 341 347 347 348 349 350 351 354 356 357
296 299 301 301 302 303 304 306 303 300 299 316 320 320 322 321 323 320 321 324 324 329 331 334 339 344 348 349 350 351 354 352
297 298 301 298 298 300 303 301 303 303 303 311 315 317 321 321 323 321 319 320 322 322 323 324 332 339 340 345 349 350 351 352
299 298 298 297 296 297 300 301 301 302 304 309 313 315 318 321 322 323 323 321 319 320 322 324 325 326 333 340 345 349 350 351
296 296 296 295 296 296 297 298 301 304 304 312 315 317 315 317 318 318 320 321 323 323 322 322 322 323 325 330 333 342 349 350
293 295 294 292 297 297 297 299 301 300 306 311 310 311 312 314 315 315 317 319 320 322 323 325 326 325 323 326 328 331 335 348
296 294 286 296 300 299 298 301 302 304 305 307 308 309 312 312 311 311 312 313 317 319 321 323 325 327 328 326 325 324 324 327
291 291 293 294 297 298 298 299 304 305 305 306 308 309 311 310 311 311 311 312 313 315 316 321 322 324 327 327 326 324 322 322
293 289 287 297 301 303 302 295 304 305 305 305 307 301 307 309 309 310 311 312 312 313 315 316 318 320 322 324 325 324 323 325
293 291 295 301 302 304 292 297 304 305 305 306 304 306 308 309 309 310 310 311 312 313 313 316 317 317 318 321 322 324 326 326
295 292 289 304 302 296 303 306 305 304 305 304 305 305 306 307 308 309 309 310 311 311 312 315 316 316 317 319 323 325 326 326
297 299 305 306 305 307 305 302 304 304 304 304 303 303 304 305 307 308 309 309 310 310 311 313 315 316 315 318 321 323 324 324
297 301 303 303 303 304 303 303 303 304 304 304 303 303 304 306 306 307 308 308 309 309 310 311 314 314 315 317 319 320 321 322
298 300 301 303 303 304 304 304 303 304 303 303 304 304 304 304 305 305 306 307 307 307 308 310 313 314 315 316 317 316 319 320
299 303 302 302 305 305 304 304 304 303 302 304 305 303 304 304 305 305 305 304 305 304 305 308 309 312 316 317 316 314 316 317
302 305 304 305 306 306 305 305 305 304 304 304 305 305 304 304 306 304 304 304 303 302 305 306 308 308 313 315 316 314 312 317

GFSFLT2_sfc_thetae_087.txt.gz
Theta_e
310 315 312 311 307 312 306 309 304 308 311 318 324 325 328 327 333 339 337 342 344 347 342 344 347 349 350 355 358 360 360 362
307 310 312 310 315 306 306 300 299 305 307 309 317 321 322 323 328 335 341 340 344 344 344 343 346 347 350 353 356 360 361 360
306 305 306 308 307 310 309 307 302 300 305 319 319 322 320 321 323 327 335 340 345 345 342 348 348 347 350 352 355 357 360 361
302 307 308 309 309 310 304 303 306 304 305 322 321 325 323 321 321 326 330 333 334 338 340 341 344 344 344 348 351 355 359 361
299 303 306 305 308 309 310 309 305 302 305 321 322 324 326 321 322 322 326 330 328 331 332 332 338 344 342 345 345 350 356 357
297 301 305 303 304 306 307 303 305 306 309 316 318 320 320 322 322 321 322 325 327 327 326 330 330 332 338 338 343 348 348 352
302 302 303 304 303 303 304 306 303 308 311 315 318 320 321 320 322 322 322 322 322 323 325 326 327 328 331 334 340 343 348 351
300 300 300 299 300 300 303 304 306 309 309 316 320 321 320 321 321 319 320 322 325 325 325 325 326 325 326 328 331 337 340 340
296 300 298 295 300 301 302 304 307 306 312 316 316 316 317 318 318 318 319 321 322 323 324 326 327 329 326 325 326 327 328 328
296 299 290 300 305 304 302 304 308 312 314 315 315 316 315 316 315 315 315 316 318 318 320 323 325 326 330 331 327 326 325 326
295 295 297 298 301 300 301 302 307 309 310 312 312 314 312 314 314 315 315 316 317 318 319 321 322 323 325 328 330 330 328 329
297 293 290 300 304 307 305 298 308 309 309 309 309 303 310 314 313 313 314 315 316 316 318 318 320 321 321 322 325 326 328 329
296 294 298 305 305 305 294 300 309 309 310 308 307 311 312 312 312 313 313 313 315 316 316 318 319 320 320 321 321 325 326 328
297 295 292 307 304 298 307 310 309 309 308 307 308 309 309 310 310 311 312 312 313 314 315 317 318 318 318 320 323 324 325 326
299 301 310 310 308 312 311 309 308 307 308 307 306 307 307 308 309 310 311 312 313 312 313 316 317 318 316 319 321 322 322 323
302 305 306 308 308 308 307 307 307 307 307 306 306 306 307 308 308 309 310 310 311 311 311 313 315 315 317 319 320 319 320 321
302 305 306 307 306 307 306 307 306 307 307 306 306 306 307 307 307 308 308 309 310 309 309 309 311 313 315 317 319 318 318 318
301 306 306 306 309 309 307 307 307 307 306 307 307 307 307 309 309 308 308 309 309 309 309 308 307 309 312 314 316 317 316 316
305 309 308 308 310 309 308 308 309 307 307 306 308 309 308 309 309 307 309 308 308 307 308 308 308 307 308 310 311 311 314 315

GFSFLT2_sfc_thetae_090.txt.gz
Theta_e
314 316 315 309 307 313 307 307 303 308 313 319 325 325 328 330 335 337 336 340 343 343 345 346 344 343 349 356 358 360 360 363
311 312 314 311 314 305 307 299 298 305 308 311 319 320 323 326 327 332 336 341 342 341 343 347 349 346 352 355 358 361 361 362
308 306 306 308 307 309 309 306 300 300 305 320 321 322 322 324 327 329 330 333 336 339 341 345 343 340 341 347 356 360 361 362
302 308 310 311 309 309 303 304 306 306 305 320 323 324 324 323 325 328 327 327 332 335 338 338 336 341 343 345 347 355 360 363
300 304 307 305 308 309 309 309 305 300 305 321 324 323 323 322 322 325 326 327 327 330 331 333 334 333 338 341 343 345 357 360
296 300 305 302 305 308 307 302 305 305 310 315 318 319 320 322 321 322 324 325 325 326 327 328 328 331 334 337 340 344 345 353
304 303 304 304 304 305 304 306 304 309 310 316 317 318 320 322 323 323 323 323 325 325 327 329 328 328 331 331 335 339 341 341
300 302 302 301 303 304 304 305 308 309 309 318 319 322 320 321 320 320 321 322 324 325 327 329 329 327 329 330 331 334 335 334
297 302 300 296 301 301 303 306 311 307 310 316 317 317 318 319 319 319 319 319 319 321 323 324 325 331 327 327 329 330 332 332
297 300 290 301 306 306 303 305 312 314 316 316 316 317 318 318 316 316 317 317 318 318 320 323 322 324 329 332 331 331 330 330
295 294 299 300 303 302 302 302 313 314 314 314 315 314 312 315 316 315 316 316 317 317 319 324 321 325 327 328 331 330 330 332
298 293 290 300 305 307 305 298 310 314 313 312 313 306 308 313 314 314 314 315 315 316 317 318 320 321 321 322 325 325 327 329
296 295 298 305 305 306 294 300 310 313 312 311 308 312 314 315 314 314 314 314 315 316 316 317 319 318 321 321 320 323 326 327
296 294 292 308 305 298 309 312 311 312 312 312 312 312 312 312 312 312 312 313 314 314 314 317 318 318 318 320 323 325 325 325
301 301 310 310 310 312 312 310 310 311 310 311 309 309 310 310 311 311 312 313 313 312 313 316 318 317 315 320 322 323 323 323
303 307 308 309 312 312 312 311 310 310 309 308 308 308 309 309 309 310 310 310 311 310 310 311 314 314 316 318 320 320 320 322
303 306 307 308 308 308 308 309 308 308 308 307 307 307 308 308 309 308 308 309 310 309 309 310 311 311 312 314 314 313 316 318
301 307 308 308 309 309 307 306 308 307 307 308 308 308 308 308 309 309 308 309 309 309 309 309 309 310 310 311 311 309 309 311
307 310 309 310 311 311 308 308 309 308 308 307 309 309 309 308 310 307 308 308 307 307 308 308 308 306 308 309 309 307 306 307

GFSFLT2_sfc_thetae_093.txt.gz
Theta_e
308 308 306 304 299 304 299 299 295 303 307 314 318 318 325 329 328 330 334 340 337 336 338 339 337 341 345 348 349 349 352 352
307 310 310 307 306 296 297 293 290 301 303 306 316 320 325 325 326 328 333 338 339 341 342 340 343 343 347 346 348 351 351 354
306 301 301 302 299 300 299 297 294 295 301 317 317 319 320 323 324 325 328 331 337 336 337 339 343 343 341 341 343 344 350 353
297 302 309 304 301 300 294 293 300 301 300 320 321 321 321 322 323 325 327 329 331 334 336 336 337 342 341 343 343 345 344 346
295 296 299 297 301 299 298 299 300 296 301 322 321 320 321 320 323 322 324 326 327 327 329 331 333 335 339 340 342 344 343 344
291 293 296 296 300 301 298 295 300 299 307 314 316 315 317 319 321 322 322 323 323 322 322 326 329 329 331 334 340 341 340 342
299 302 299 299 300 301 296 305 299 304 309 313 316 315 318 319 320 320 321 322 322 323 323 324 325 327 327 330 335 335 336 339
295 301 299 297 301 302 301 309 306 308 310 318 319 319 318 319 319 318 319 320 322 323 324 323 324 325 327 328 331 331 331 334
289 298 298 291 297 298 298 308 310 305 310 317 315 315 316 316 316 314 314 315 315 316 315 315 322 325 324 324 328 329 330 331
291 295 284 294 301 302 300 309 313 313 314 316 317 317 314 313 312 312 312 312 312 314 315 315 317 318 325 327 327 327 327 328
289 287 294 299 300 299 298 308 314 313 316 313 312 310 309 313 312 311 311 310 310 313 315 315 315 316 319 321 321 320 321 323
292 290 287 295 302 305 303 301 312 311 309 309 310 302 302 310 311 310 310 309 310 312 313 313 312 314 315 316 316 316 318 319
289 289 296 301 302 303 292 296 313 312 310 309 303 306 307 309 309 309 310 309 310 311 311 311 313 313 312 314 313 316 317 318
290 287 288 306 302 298 303 306 308 309 310 307 307 308 308 308 307 308 308 309 310 309 310 311 311 311 310 309 312 315 316 316
296 296 303 307 305 307 307 305 306 306 308 308 307 306 306 305 306 307 307 307 307 306 307 308 309 308 306 309 310 311 313 314
298 303 305 306 308 308 307 305 306 306 305 306 304 305 305 304 304 304 304 304 306 305 304 305 306 307 306 306 307 306 306 308
297 304 305 306 306 305 307 307 306 306 305 305 305 305 304 303 303 303 303 304 304 303 303 303 305 305 305 305 305 303 303 304
295 302 302 305 305 306 304 304 304 303 304 305 306 304 305 304 304 303 303 303 303 303 303 303 303 302 303 304 304 303 302 303
301 305 305 306 309 307 305 305 306 305 304 302 305 305 305 304 303 305 304 302 302 301 302 302 301 303 303 303 303 303 300 301

GFSFLT2_sfc_thetae_096.txt.gz
Theta_e
306 305 303 297 296 300 295 295 296 303 307 315 320 322 328 328 327 329 333 335 335 336 337 336 339 343 344 346 346 345 347 346
305 305 306 302 304 295 293 290 292 299 301 303 310 318 324 324 325 329 333 338 339 339 340 341 342 342 344 346 344 344 348 347
300 297 299 300 297 298 296 294 296 295 301 318 317 322 322 323 325 327 329 333 335 337 340 340 341 341 341 341 342 343 344 343
295 301 306 302 299 296 293 294 298 297 304 321 321 322 321 323 324 326 327 330 333 335 337 338 339 341 341 341 341 342 343 344
293 294 298 295 297 295 295 298 295 295 303 321 320 320 322 321 322 324 325 324 326 328 330 333 336 340 340 341 341 342 342 342
289 291 294 293 297 298 294 295 295 298 308 314 316 316 319 319 321 322 321 321 322 323 325 327 329 332 334 338 342 342 342 340
296 298 298 295 296 299 299 299 296 306 308 310 314 316 318 320 320 319 320 320 318 319 321 322 323 327 331 334 335 339 339 339
295 298 299 295 297 302 306 306 308 309 309 315 318 318 317 318 319 319 320 321 322 321 321 321 322 324 327 329 330 332 334 335
290 296 294 289 294 295 302 308 311 305 312 317 315 317 317 317 316 314 314 314 315 317 319 322 323 324 324 327 328 328 328 330
289 293 284 292 298 302 309 311 313 313 315 316 315 317 315 315 312 312 312 312 311 312 313 314 316 322 324 325 325 326 327 329
286 286 294 298 298 296 300 305 315 313 314 314 311 310 309 312 311 308 307 308 310 311 310 311 313 316 317 316 316 316 317 320
286 284 285 296 302 303 307 300 315 316 311 309 309 301 304 310 309 308 308 309 309 310 310 310 310 314 313 312 312 312 313 316
287 286 291 299 302 305 291 294 310 310 309 308 305 306 306 308 307 308 308 309 310 310 308 307 309 310 308 308 308 311 313 314
287 284 283 304 303 298 300 302 310 309 307 306 308 307 306 306 305 306 306 308 308 306 305 306 306 307 304 304 307 308 309 309
293 292 300 302 302 304 304 304 304 306 308 308 307 305 305 304 304 304 304 304 305 304 303 304 305 305 302 302 305 304 304 304
295 299 300 302 303 305 305 303 304 307 306 307 303 304 302 302 302 302 303 303 303 302 301 301 302 302 302 303 303 302 301 301
293 298 301 304 302 303 303 304 303 304 305 304 304 302 302 301 300 301 301 301 301 301 300 300 300 300 301 301 302 301 300 300
289 297 297 300 302 304 302 302 302 303 302 304 304 302 302 301 301 301 301 300 300 300 300 299 299 300 300 301 300 298 298 299
297 301 301 302 304 303 302 302 304 302 302 302 303 303 302 300 299 303 300 300 299 299 299 299 299 299 299 300 299 299 297 298

GFSFLT2_sfc_thetae_099.txt.gz
Theta_e
302 302 302 296 294 298 295 292 295 300 304 315 323 324 326 326 329 330 332 335 335 335 337 337 338 342 343 341 338 340 340 343
303 303 303 299 301 294 291 287 288 296 297 301 315 320 322 321 324 328 333 336 337 336 335 338 338 340 345 346 343 341 342 343
298 295 298 299 295 294 294 293 290 292 299 314 312 320 320 323 325 327 329 334 336 338 339 338 341 341 341 342 341 343 345 343
294 299 300 299 297 295 291 291 295 297 301 321 321 321 322 321 324 326 329 331 333 337 339 338 339 339 339 339 341 341 341 343
292 294 297 293 295 294 294 296 295 295 301 321 320 320 321 321 323 324 325 326 328 330 332 337 339 340 340 340 341 341 340 339
287 291 293 291 293 295 294 291 294 297 308 315 317 318 319 320 321 321 322 323 325 326 327 330 334 337 339 339 341 342 341 339
296 295 296 293 294 297 293 295 296 303 308 313 315 317 317 319 319 318 318 319 321 320 321 325 328 331 333 335 339 341 339 339
293 298 297 293 296 298 305 307 306 309 309 318 318 317 316 318 318 317 317 318 320 321 322 322 325 327 328 330 332 335 336 337
287 294 294 290 293 293 303 309 310 305 310 316 314 315 315 316 318 314 315 316 317 319 321 322 323 325 325 327 329 329 330 331
290 292 285 293 297 308 309 311 311 312 314 315 315 316 316 314 312 312 313 313 313 313 316 321 322 318 318 319 319 320 322 325
285 288 295 298 298 295 299 306 314 313 314 316 315 310 309 312 313 311 311 311 310 312 314 314 314 314 314 314 315 315 315 316
286 284 285 296 300 303 309 302 317 316 314 309 310 302 305 309 310 310 309 309 310 311 311 310 308 310 310 309 310 310 311 313
285 284 290 299 304 306 290 292 316 316 311 310 307 306 306 306 308 309 309 310 309 309 307 306 306 307 305 306 306 307 309 309
284 282 282 302 302 294 297 304 310 311 310 307 306 307 306 306 305 308 307 307 307 304 304 304 304 304 301 302 304 305 305 306
290 289 297 300 298 300 303 305 306 308 309 308 307 306 306 303 304 306 306 304 304 303 302 302 302 302 300 300 302 302 302 302
293 297 298 299 301 302 305 305 307 308 308 308 306 307 304 303 303 302 302 302 302 301 300 299 300 300 300 300 301 300 299 299
292 296 298 300 301 301 303 307 308 309 309 308 306 305 304 303 302 303 301 300 300 300 299 298 298 298 299 300 299 298 298 298
290 296 295 297 300 302 301 303 304 304 304 306 305 302 303 301 301 301 300 300 299 298 297 297 298 298 298 298 298 296 296 296
296 298 299 301 303 303 300 302 304 304 304 301 302 302 301 300 299 302 299 299 299 298 297 297 297 297 298 298 297 295 294 294

GFSFLT2_sfc_thetae_102.txt.gz
Theta_e
300 299 300 294 294 300 294 291 296 300 304 313 322 322 325 327 329 328 327 330 331 335 336 336 337 341 340 341 340 341 343 343
302 302 301 298 299 292 290 287 288 296 299 301 315 320 322 324 326 329 333 333 334 333 336 338 339 340 344 342 339 341 342 344
296 294 296 297 294 292 293 292 290 291 297 313 314 321 321 323 326 328 331 334 336 337 337 338 342 342 344 343 343 343 344 343
294 297 299 297 295 294 291 290 293 294 297 319 321 322 323 324 326 329 331 334 337 338 337 337 340 341 341 341 343 343 344 345
292 292 296 292 292 293 293 297 295 293 296 321 320 321 322 323 325 326 327 329 331 334 336 337 338 339 340 340 340 341 342 341
288 289 291 292 293 294 292 290 294 295 306 315 316 316 320 322 322 323 325 326 327 328 331 337 338 337 338 339 340 340 340 339
293 295 295 293 293 294 293 294 297 300 306 312 315 317 319 320 320 320 321 322 324 324 326 330 333 334 336 338 341 341 340 340
294 297 295 293 298 296 304 303 305 306 305 315 319 318 318 318 317 317 318 319 321 322 325 326 327 328 329 331 334 338 340 338
287 294 294 289 293 296 297 308 307 303 308 315 314 315 317 317 316 316 317 318 319 321 322 324 325 325 324 327 329 329 329 331
288 290 285 296 298 304 308 310 311 310 314 316 315 315 318 318 314 314 315 317 319 320 318 318 318 318 318 318 318 318 318 320
288 287 293 297 297 296 300 305 313 312 315 315 313 312 310 315 315 312 312 313 316 316 315 315 315 315 315 315 315 315 314 315
286 284 285 296 301 304 307 294 315 315 313 310 313 305 306 311 311 310 312 314 313 312 311 310 310 311 310 309 310 310 311 311
285 285 289 297 302 304 292 292 314 316 314 312 309 309 306 310 308 309 311 311 310 310 308 307 307 307 305 305 305 308 309 309
283 283 282 300 301 295 297 305 314 312 311 307 307 307 307 306 307 307 306 307 308 306 304 304 305 304 302 302 304 306 306 306
290 288 296 299 299 302 301 305 308 309 309 309 307 307 308 308 307 306 305 304 305 303 302 303 303 303 301 302 304 303 303 303
293 296 298 300 302 303 306 306 309 310 310 310 307 308 307 306 304 304 304 303 303 302 301 300 302 302 302 302 303 302 301 301
292 296 298 301 301 302 306 308 308 310 310 309 307 307 307 304 303 303 302 302 302 301 300 299 301 301 301 301 301 300 300 299
291 295 295 297 300 303 303 306 308 308 308 310 309 306 307 305 305 303 302 302 302 300 299 299 299 300 300 300 300 299 297 297
296 299 299 301 302 304 302 304 306 306 308 306 308 307 306 304 304 303 302 301 301 300 300 300 299 299 300 300 299 297 296 296

GFSFLT2_sfc_thetae_105.txt.gz
Theta_e
305 307 307 302 299 308 303 305 304 308 311 317 324 326 327 329 331 329 330 334 337 340 342 341 340 345 346 347 349 351 351 354
306 306 306 306 308 300 303 298 297 305 307 309 318 320 325 328 329 330 332 335 336 337 341 343 342 345 346 348 347 349 352 353
305 303 302 303 302 303 305 303 300 300 306 318 321 324 326 329 331 332 332 334 337 340 342 343 344 346 348 350 350 345 350 354
302 305 306 306 305 306 299 300 305 305 307 324 324 327 326 328 332 335 336 337 340 340 341 342 341 343 347 348 348 350 350 352
299 301 303 302 302 305 306 308 305 301 306 323 326 325 328 327 330 330 333 336 337 340 340 341 340 340 345 345 346 350 350 350
296 299 301 299 299 303 306 302 304 305 310 317 320 322 324 326 328 329 330 331 332 337 338 338 338 338 340 342 343 344 344 344
300 299 300 300 304 300 302 304 304 308 312 318 319 320 322 324 324 324 326 328 327 329 337 339 340 336 334 339 341 341 341 340
299 301 300 298 305 306 306 305 309 310 313 323 322 324 321 322 322 322 323 324 324 327 329 332 336 336 337 339 341 341 340 339
296 300 301 296 299 307 309 312 312 310 316 323 318 319 319 320 322 322 322 322 323 324 324 324 327 329 329 331 333 332 333 336
298 300 292 300 304 308 312 314 316 316 318 321 320 320 321 324 321 320 321 321 320 319 319 320 320 319 320 320 321 322 323 327
294 296 299 300 301 302 304 306 317 317 318 318 319 318 316 321 324 324 324 318 316 315 317 317 316 318 318 317 320 319 317 318
296 291 291 301 304 308 311 302 318 319 316 316 316 309 309 317 318 320 318 316 314 314 313 313 314 315 313 313 313 311 313 314
294 293 296 303 307 308 297 300 315 321 320 317 318 321 315 314 315 318 315 313 313 312 311 311 313 313 312 313 311 312 313 312
293 292 291 306 307 302 307 311 316 323 322 321 316 317 315 312 314 316 315 313 312 313 313 314 315 314 313 312 314 314 315 315
298 298 306 308 307 310 310 310 315 321 320 316 314 314 313 314 314 316 316 315 315 313 312 312 313 313 311 311 312 312 312 312
301 303 305 308 311 313 313 313 315 319 316 316 314 314 313 312 311 312 313 312 312 311 310 309 310 311 310 310 311 311 309 309
302 305 306 307 309 310 313 315 316 317 316 315 315 313 312 309 307 306 307 310 311 310 309 308 309 309 309 310 310 307 306 306
302 305 307 306 308 309 310 312 315 315 313 315 315 313 311 308 307 305 305 307 308 309 309 308 308 308 308 310 309 306 305 304
305 308 307 309 308 309 308 312 314 316 316 313 314 312 309 307 307 307 306 307 307 306 308 308 307 307 308 308 307 306 304 304

GFSFLT2_sfc_thetae_108.txt.gz
Theta_e
311 311 310 309 307 314 308 310 305 308 313 321 324 327 330 333 335 334 336 337 338 342 345 347 349 351 352 353 356 357 356 359
309 311 311 310 313 306 307 300 300 307 308 310 321 323 328 330 332 335 335 337 339 341 345 348 349 350 352 354 355 355 355 357
308 305 304 306 305 307 308 307 302 301 306 322 323 326 328 330 333 336 337 336 338 343 346 348 349 347 348 354 355 353 355 356
304 310 310 310 307 307 301 302 307 306 308 327 327 330 332 334 336 338 339 338 340 340 342 344 348 350 348 350 351 355 355 355
302 307 309 307 308 309 309 308 305 302 306 328 330 330 332 331 335 338 338 339 341 340 341 346 345 345 349 350 351 355 355 355
299 302 307 304 306 308 308 304 305 306 310 323 326 328 330 332 334 337 338 339 342 344 342 341 346 342 343 344 346 352 353 353
306 305 305 305 305 306 306 308 305 307 309 317 327 328 329 330 330 332 334 334 336 341 343 343 344 341 341 342 344 344 344 350
303 304 304 303 307 308 307 308 309 310 311 326 331 330 327 327 328 329 330 331 331 333 342 343 342 342 342 340 342 344 342 341
300 304 304 300 305 309 311 313 314 308 318 328 326 324 324 326 329 327 328 330 328 326 331 340 341 341 339 343 345 343 343 341
299 304 295 305 310 311 313 316 318 319 322 327 326 326 327 329 327 327 327 324 323 322 320 329 334 339 337 338 336 334 333 335
297 298 303 304 306 307 308 310 320 320 322 325 324 324 322 328 328 328 325 324 320 318 319 320 321 323 323 322 324 324 325 327
301 295 294 304 308 312 312 306 322 323 322 321 321 314 315 328 328 325 323 317 315 316 316 315 317 319 317 317 319 317 319 324
299 297 301 308 310 312 301 305 315 323 323 321 319 324 326 327 325 324 319 316 316 313 312 314 315 315 314 314 313 314 315 320
300 295 294 311 311 307 312 317 318 323 325 321 320 322 323 323 319 321 319 318 317 312 312 315 316 317 315 314 317 319 319 318
302 303 310 313 312 317 319 318 318 324 326 323 323 322 320 321 318 316 314 315 316 313 313 316 319 319 317 317 321 322 321 321
305 309 310 311 315 317 319 320 323 325 325 324 321 319 318 320 317 316 315 312 314 314 314 313 317 319 319 319 320 319 318 318
305 310 311 312 314 316 318 321 322 322 323 323 323 319 319 321 319 319 317 317 316 316 314 315 316 316 316 317 317 315 316 315
306 312 314 312 314 315 316 318 321 321 319 321 322 319 318 316 314 312 316 316 316 316 315 315 315 314 315 316 315 313 311 311
311 315 313 314 314 314 314 317 320 321 322 321 320 319 315 310 310 310 311 314 315 314 313 313 312 313 314 314 314 313 311 310

GFSFLT2_sfc_thetae_111.txt.gz
Theta_e
313 314 314 311 310 318 308 309 307 310 316 323 327 327 331 331 331 331 336 336 338 341 344 345 346 348 349 355 356 356 355 358
311 313 313 311 316 308 310 300 297 306 307 310 321 325 329 331 328 332 335 337 338 339 341 346 347 348 351 354 356 356 355 356
309 307 307 307 307 310 311 308 301 300 307 323 324 326 327 331 334 334 336 338 340 340 342 347 348 350 350 352 356 356 355 357
306 311 312 311 308 309 303 304 307 304 305 321 329 330 331 332 335 337 338 339 340 341 347 350 351 353 354 353 354 356 359 361
302 308 310 306 309 310 309 309 305 302 308 328 331 332 334 333 336 338 339 340 339 340 347 349 350 352 352 353 355 357 358 356
298 303 308 306 307 309 308 303 305 305 315 324 328 329 333 336 336 339 341 342 341 342 342 345 348 351 352 351 355 355 354 353
306 307 310 308 307 307 307 308 305 308 309 320 328 331 333 335 337 339 340 341 342 342 344 347 347 345 343 344 344 346 346 350
305 306 307 306 308 308 308 308 308 309 309 323 331 335 333 333 334 334 335 337 342 344 345 344 347 344 343 343 348 347 346 347
301 305 305 302 306 308 309 311 310 307 317 321 330 330 330 329 331 331 334 333 334 338 341 347 346 345 345 346 349 347 347 346
302 305 296 306 314 313 312 314 317 317 322 328 331 332 331 333 333 332 332 330 331 326 333 340 344 345 343 345 344 347 344 343
299 301 300 304 310 309 310 312 320 320 324 329 330 329 326 331 334 333 331 328 326 324 322 326 333 338 339 342 339 335 331 333
302 298 291 301 310 314 314 306 315 323 324 325 324 320 322 330 329 329 330 325 319 319 319 319 321 329 326 324 325 323 327 329
300 299 303 310 309 313 300 306 317 323 325 324 321 326 331 328 328 326 321 317 318 317 314 315 317 318 315 315 314 317 319 326
302 295 295 314 312 306 314 318 319 323 326 326 322 328 326 323 324 319 316 315 314 313 315 317 317 315 315 315 318 319 320 321
305 305 313 315 315 318 320 320 322 322 326 328 326 324 321 321 321 318 318 316 316 314 314 317 320 318 314 319 323 323 321 321
307 311 312 313 316 318 320 321 324 325 326 327 324 323 320 321 320 321 321 320 318 317 315 314 320 318 319 319 323 324 322 323
307 313 313 314 316 317 318 321 323 326 325 324 324 322 319 319 318 316 314 314 317 317 317 315 318 317 318 321 322 321 321 320
305 314 315 315 317 316 316 318 321 322 323 324 323 321 321 317 317 316 314 315 315 315 316 316 316 316 318 321 320 318 316 316
312 317 313 317 317 317 316 318 320 321 324 322 322 320 314 312 313 314 317 318 316 314 315 316 315 314 317 317 317 317 315 314

GFSFLT2_sfc_thetae_117.txt.gz
Theta_e
310 310 310 306 300 305 302 305 301 305 309 315 319 322 320 322 326 328 330 331 334 337 336 340 339 340 348 348 348 346 348 350
308 309 308 304 308 300 303 295 294 303 302 304 312 317 322 321 324 328 330 332 333 337 338 339 341 339 349 350 349 348 349 351
305 300 299 299 297 298 302 303 297 296 303 316 315 320 322 324 324 327 331 330 333 337 339 339 340 339 349 349 348 348 349 349
298 306 308 303 298 298 291 291 300 300 302 321 319 324 324 325 328 328 332 331 331 335 337 336 336 340 348 350 349 348 348 349
296 302 308 303 302 301 297 294 292 294 301 320 323 319 320 324 329 330 329 332 333 335 337 341 338 343 341 344 344 345 348 348
290 294 301 301 304 305 300 290 293 295 307 313 315 319 322 326 329 330 330 330 334 335 337 339 341 341 338 338 342 339 339 342
299 302 303 303 303 304 301 306 297 301 307 314 318 322 322 330 329 330 331 331 335 335 335 336 336 338 343 344 341 344 343 344
299 304 305 302 306 306 309 308 307 308 313 320 323 321 321 321 332 329 332 335 338 335 335 334 335 335 343 341 342 343 343 340
293 302 302 299 303 305 307 310 308 308 313 315 314 317 318 321 332 332 330 334 336 339 339 334 337 341 340 340 342 339 340 343
293 296 288 303 309 309 308 311 315 316 320 315 314 314 316 325 330 330 330 328 328 329 334 342 344 342 342 343 342 341 342 339
294 293 297 303 306 305 303 307 314 317 318 320 324 325 325 330 330 326 325 323 323 324 328 332 341 341 340 337 339 339 337 337
295 293 289 299 308 311 310 302 316 319 315 314 317 310 317 325 324 322 322 322 320 320 324 325 327 330 328 325 326 327 332 334
294 293 299 309 309 312 298 302 315 320 318 315 311 320 320 320 318 318 316 317 318 316 316 318 320 323 320 321 319 322 326 331
295 292 292 312 312 302 307 313 316 322 320 319 322 321 319 316 315 315 316 316 316 314 315 318 319 319 317 317 320 322 324 325
299 297 310 312 310 310 312 312 313 320 322 319 320 319 318 315 314 314 314 315 316 316 315 316 318 318 316 318 321 321 322 323
302 306 310 312 314 314 315 314 317 323 322 323 319 318 316 314 313 312 313 314 316 316 314 315 317 317 318 320 320 319 319 319
301 307 310 313 312 312 315 316 318 323 324 323 319 316 315 314 315 315 315 316 315 314 313 313 315 316 319 320 320 319 319 318
301 311 310 311 313 315 313 313 316 322 321 322 320 318 316 315 314 314 314 316 315 313 313 312 312 312 314 318 319 317 317 316
311 314 316 316 316 317 312 314 316 322 322 319 319 317 313 311 313 313 313 312 312 312 313 313 313 313 312 315 314 316 317 316

GFSFLT2_sfc_thetae_120.txt.gz
Theta_e
307 312 313 306 303 307 299 301 299 304 309 316 317 320 320 322 325 327 331 331 332 334 338 340 340 343 345 342 343 342 346 345
305 308 313 305 307 299 300 292 293 301 302 304 311 316 317 320 322 324 329 330 331 333 337 338 343 344 345 345 344 343 344 347
300 297 298 297 295 294 298 298 295 296 301 313 313 318 318 319 323 322 326 329 331 333 335 339 342 343 346 346 346 343 346 346
295 302 306 298 295 292 289 288 296 298 300 315 315 321 322 322 322 324 327 332 333 334 335 336 337 338 346 347 346 345 346 346
293 298 302 301 301 298 293 289 288 291 294 317 317 320 323 323 326 325 328 331 333 335 334 335 335 339 345 346 346 346 346 346
289 294 299 298 301 302 297 294 295 292 296 312 316 318 320 322 327 328 327 330 329 332 334 334 338 341 343 345 343 343 343 344
296 303 304 304 304 306 302 301 299 305 306 310 316 319 322 326 329 328 328 330 328 331 336 337 339 340 340 339 340 339 338 338
295 302 303 301 305 307 307 307 306 310 308 315 318 320 322 326 328 329 329 330 334 334 337 337 340 340 340 340 340 341 338 340
290 299 299 296 300 305 307 312 310 307 312 313 310 315 316 322 324 327 329 331 332 334 334 336 335 342 340 340 343 341 340 341
289 291 287 298 305 308 308 310 314 314 317 317 315 323 325 327 325 324 325 327 325 326 333 335 339 341 342 342 341 340 340 340
290 288 294 302 304 304 302 304 316 313 314 315 316 320 321 324 324 323 322 322 322 324 327 336 340 340 341 340 338 339 337 337
290 288 287 297 307 309 308 298 315 316 313 313 312 305 315 319 319 319 319 319 318 320 322 325 333 338 333 332 336 336 335 335
291 290 296 305 308 309 294 296 312 319 317 312 311 317 318 318 314 316 317 316 317 317 316 319 325 330 326 327 326 329 332 334
291 288 287 309 309 300 303 308 312 319 319 319 319 318 315 312 312 315 315 315 315 316 317 319 321 325 322 320 323 327 329 329
294 293 303 308 307 308 309 309 314 317 320 321 319 318 314 312 313 313 314 314 315 315 315 318 320 321 319 320 323 324 322 317
297 300 304 309 311 311 311 313 318 319 315 318 315 314 310 311 310 312 314 314 313 315 314 314 317 319 320 320 321 320 313 310
298 303 306 310 312 311 312 320 322 322 321 319 315 312 310 308 311 312 313 311 314 311 310 312 315 316 318 319 320 317 314 309
296 303 304 306 309 312 311 315 321 321 318 318 316 312 311 310 313 313 312 314 312 311 311 312 313 312 313 318 318 317 316 314
307 310 310 311 313 312 310 317 321 320 319 316 315 313 311 309 312 313 312 312 310 311 311 311 311 311 312 314 313 312 311 312

GFSFLT2_sfc_thetae_123.txt.gz
Theta_e
316 314 314 308 301 304 300 299 296 303 309 313 316 318 319 321 324 327 330 330 331 332 335 337 339 341 341 342 340 341 341 341
304 314 313 307 309 298 300 293 290 300 302 302 310 312 317 319 323 326 330 332 332 333 335 337 339 341 343 342 342 343 343 342
299 295 302 296 294 294 297 297 293 294 298 310 310 315 316 320 324 326 328 331 331 332 337 338 338 340 342 342 342 341 342 343
294 300 304 300 295 291 289 287 294 298 297 315 314 319 319 319 324 328 330 330 331 333 334 336 338 341 342 343 342 343 343 344
293 298 303 299 299 294 290 288 289 290 293 316 318 319 318 319 323 325 327 328 331 332 332 335 338 340 342 343 343 344 343 344
287 291 296 299 303 303 295 293 292 292 303 310 315 317 320 323 324 323 324 326 330 331 332 334 336 336 342 343 345 344 344 344
294 302 304 304 303 305 300 298 296 304 304 308 313 318 323 326 329 327 325 328 329 330 332 333 335 336 342 340 341 343 343 343
295 302 303 301 304 306 306 308 308 307 305 312 314 321 321 322 327 326 326 328 329 331 334 334 335 337 340 339 338 340 340 339
288 296 297 294 299 304 306 309 308 302 306 316 318 320 319 321 324 325 327 330 330 331 335 336 337 340 339 339 340 338 338 339
288 289 285 297 304 308 308 310 312 313 314 318 321 321 321 323 322 324 324 324 326 329 332 332 337 340 340 341 340 337 336 339
289 286 293 300 303 302 301 302 312 310 313 314 318 318 318 321 321 321 321 322 322 324 327 336 337 339 339 339 339 338 337 337
289 287 285 294 305 308 306 296 310 314 310 311 311 302 310 318 318 319 319 318 318 320 322 324 333 338 337 336 336 337 338 337
290 288 294 302 305 307 293 294 308 314 314 309 307 310 316 316 315 316 316 317 318 318 318 321 327 335 330 331 330 334 336 336
289 286 286 307 307 298 301 305 309 315 315 315 317 317 313 313 315 315 315 315 316 317 318 320 325 326 323 322 327 330 332 333
293 292 300 305 304 306 307 311 311 312 317 317 318 315 313 309 312 313 315 315 316 315 317 319 321 324 321 322 325 324 323 320
295 297 302 307 309 308 310 314 316 315 316 316 314 314 313 309 309 313 314 314 315 315 313 315 319 320 321 322 319 316 313 310
296 301 304 308 309 309 315 318 318 318 318 315 312 309 307 306 308 312 313 314 314 311 312 312 314 316 318 319 316 312 309 307
296 302 302 304 308 311 317 318 318 318 316 315 312 309 307 306 307 308 312 313 311 311 310 310 313 313 314 316 316 312 309 308
303 305 307 309 310 310 312 318 320 318 317 314 311 310 307 307 308 311 308 312 308 309 309 310 310 309 311 313 313 313 312 311